| time (UTC) | temp F | wind direction | speed MPH | gust MPH | rain 1hr in | rain 24hr in | rain mn in | humidity % | barometer mb |
| 20260507140206 | 46 | 193 | 6.0 | 8.0 | 0.00 | 0.00 | 0.00 | 85 | 853.1 |
| 20260507140007 | 46 | 194 | 6.0 | 8.0 | 0.00 | 0.00 | 0.00 | 85 | 853.1 |
| 20260507135852 | 46 | 192 | 6.0 | 8.0 | 0.00 | 0.00 | 0.00 | 85 | 853.2 |
| 20260507135753 | 46 | 193 | 6.0 | 8.0 | 0.00 | 0.00 | 0.00 | 85 | 853.2 |
| 20260507135349 | 45 | 192 | 6.0 | 9.0 | 0.00 | 0.00 | 0.00 | 85 | 853.2 |
| 20260507135150 | 45 | 193 | 6.0 | 10.0 | 0.00 | 0.00 | 0.00 | 85 | 853.2 |
| 20260507134951 | 45 | 193 | 6.0 | 9.0 | 0.00 | 0.00 | 0.00 | 85 | 853.2 |
| 20260507134849 | 45 | 192 | 6.0 | 9.0 | 0.00 | 0.00 | 0.00 | 85 | 853.2 |
| 20260507134749 | 45 | 194 | 7.0 | 9.0 | 0.00 | 0.00 | 0.00 | 85 | 853.1 |
| 20260507134550 | 45 | 194 | 6.0 | 9.0 | 0.00 | 0.00 | 0.00 | 85 | 853.2 |
| 20260507134346 | 45 | 190 | 5.0 | 7.0 | 0.00 | 0.00 | 0.00 | 85 | 853.3 |
| 20260507134147 | 45 | 197 | 5.0 | 7.0 | 0.00 | 0.00 | 0.00 | 85 | 853.3 |
| 20260507133947 | 45 | 194 | 5.0 | 7.0 | 0.00 | 0.00 | 0.00 | 85 | 853.3 |
| 20260507133846 | 45 | 189 | 5.0 | 7.0 | 0.00 | 0.00 | 0.00 | 85 | 853.3 |
| 20260507133747 | 44 | 195 | 5.0 | 8.0 | 0.00 | 0.00 | 0.00 | 85 | 853.3 |
| 20260507133546 | 44 | 198 | 5.0 | 8.0 | 0.00 | 0.00 | 0.00 | 85 | 853.4 |
| 20260507133343 | 44 | 195 | 5.0 | 7.0 | 0.00 | 0.00 | 0.00 | 85 | 853.4 |
| 20260507133145 | 44 | 196 | 6.0 | 10.0 | 0.00 | 0.00 | 0.00 | 85 | 853.4 |
| 20260507132944 | 44 | 192 | 6.0 | 8.0 | 0.00 | 0.00 | 0.00 | 85 | 853.4 |
| 20260507132843 | 44 | 192 | 6.0 | 8.0 | 0.00 | 0.00 | 0.00 | 85 | 853.4 |
| 20260507132745 | 44 | 189 | 6.0 | 9.0 | 0.00 | 0.00 | 0.00 | 85 | 853.5 |
| 20260507132340 | 44 | 190 | 6.0 | 11.0 | 0.00 | 0.00 | 0.00 | 84 | 853.5 |
| 20260507132141 | 44 | 185 | 5.0 | 8.0 | 0.00 | 0.00 | 0.00 | 84 | 853.5 |
| 20260507131941 | 44 | 180 | 4.0 | 8.0 | 0.00 | 0.00 | 0.00 | 84 | 853.6 |
| 20260507131840 | 44 | 177 | 4.0 | 8.0 | 0.00 | 0.00 | 0.00 | 84 | 853.6 |
| 20260507131741 | 44 | 178 | 3.0 | 5.0 | 0.00 | 0.00 | 0.00 | 84 | 853.6 |
| 20260507131540 | 44 | 177 | 3.0 | 5.0 | 0.00 | 0.00 | 0.00 | 84 | 853.6 |
| 20260507131337 | 45 | 178 | 4.0 | 6.0 | 0.00 | 0.00 | 0.00 | 84 | 853.6 |
| 20260507131138 | 45 | 186 | 4.0 | 7.0 | 0.00 | 0.00 | 0.00 | 84 | 853.7 |
| 20260507130939 | 45 | 170 | 3.0 | 5.0 | 0.00 | 0.00 | 0.00 | 84 | 853.7 |
| 20260507130837 | 45 | 166 | 2.0 | 5.0 | 0.00 | 0.00 | 0.00 | 84 | 853.7 |
| 20260507130738 | 45 | 174 | 3.0 | 6.0 | 0.00 | 0.00 | 0.00 | 84 | 853.8 |
| 20260507130538 | 45 | 193 | 6.0 | 10.0 | 0.00 | 0.00 | 0.00 | 84 | 853.8 |
| 20260507130334 | 45 | 190 | 6.0 | 10.0 | 0.00 | 0.00 | 0.00 | 84 | 853.9 |
| 20260507130134 | 45 | 191 | 5.0 | 8.0 | 0.00 | 0.00 | 0.00 | 84 | 853.9 |
| 20260507125934 | 45 | 194 | 7.0 | 11.0 | 0.00 | 0.00 | 0.00 | 84 | 853.9 |
| 20260507125834 | 45 | 196 | 7.0 | 11.0 | 0.00 | 0.00 | 0.00 | 84 | 853.9 |
| 20260507125734 | 46 | 199 | 7.0 | 11.0 | 0.00 | 0.00 | 0.00 | 84 | 853.9 |
| 20260507125534 | 46 | 205 | 6.0 | 9.0 | 0.00 | 0.00 | 0.00 | 84 | 853.6 |
| 20260507125331 | 46 | 204 | 6.0 | 9.0 | 0.00 | 0.00 | 0.00 | 84 | 853.3 |
| 20260507125131 | 46 | 211 | 5.0 | 9.0 | 0.00 | 0.00 | 0.00 | 84 | 853.1 |
| 20260507124932 | 46 | 207 | 5.0 | 6.0 | 0.00 | 0.00 | 0.00 | 84 | 852.9 |
| 20260507124830 | 46 | 208 | 4.0 | 6.0 | 0.00 | 0.00 | 0.00 | 84 | 852.9 |
| 20260507124731 | 46 | 205 | 4.0 | 8.0 | 0.00 | 0.00 | 0.00 | 84 | 852.9 |
| 20260507124530 | 46 | 197 | 6.0 | 9.0 | 0.00 | 0.00 | 0.00 | 84 | 852.8 |
| 20260507124327 | 46 | 200 | 6.0 | 10.0 | 0.00 | 0.00 | 0.00 | 84 | 852.7 |
| 20260507124128 | 46 | 198 | 6.0 | 9.0 | 0.00 | 0.00 | 0.00 | 84 | 852.7 |
| 20260507123827 | 46 | 190 | 6.0 | 11.0 | 0.00 | 0.00 | 0.00 | 83 | 852.7 |
| 20260507123728 | 46 | 193 | 5.0 | 8.0 | 0.00 | 0.00 | 0.00 | 83 | 852.8 |
| 20260507123528 | 46 | 204 | 5.0 | 7.0 | 0.00 | 0.00 | 0.00 | 83 | 852.8 |
| 20260507123324 | 46 | 195 | 6.0 | 8.0 | 0.00 | 0.00 | 0.00 | 83 | 853.0 |
| 20260507123126 | 46 | 196 | 6.0 | 10.0 | 0.00 | 0.00 | 0.00 | 83 | 853.1 |
| 20260507122925 | 46 | 204 | 6.0 | 10.0 | 0.00 | 0.00 | 0.00 | 83 | 853.1 |
| 20260507122824 | 46 | 209 | 5.0 | 8.0 | 0.00 | 0.00 | 0.00 | 83 | 853.1 |
| 20260507122726 | 46 | 214 | 6.0 | 8.0 | 0.00 | 0.00 | 0.00 | 83 | 853.1 |
| 20260507122526 | 46 | 218 | 7.0 | 9.0 | 0.00 | 0.00 | 0.00 | 83 | 853.1 |
| 20260507122321 | 46 | 218 | 8.0 | 11.0 | 0.00 | 0.00 | 0.00 | 83 | 853.0 |
| 20260507122123 | 46 | 230 | 8.0 | 11.0 | 0.00 | 0.00 | 0.00 | 83 | 853.0 |
| 20260507121822 | 46 | 228 | 8.0 | 13.0 | 0.00 | 0.00 | 0.00 | 82 | 853.0 |
| 20260507121722 | 46 | 228 | 8.0 | 13.0 | 0.00 | 0.00 | 0.00 | 82 | 853.0 |
| 20260507121523 | 46 | 228 | 8.0 | 12.0 | 0.00 | 0.00 | 0.00 | 82 | 853.1 |
| 20260507121319 | 46 | 219 | 8.0 | 12.0 | 0.00 | 0.00 | 0.00 | 82 | 853.1 |
| 20260507120819 | 46 | 217 | 7.0 | 8.0 | 0.00 | 0.00 | 0.00 | 82 | 853.2 |
| 20260507120719 | 47 | 219 | 6.0 | 8.0 | 0.00 | 0.00 | 0.00 | 82 | 853.2 |
| 20260507120520 | 47 | 218 | 6.0 | 10.0 | 0.00 | 0.00 | 0.00 | 82 | 853.2 |
| 20260507120316 | 47 | 221 | 6.0 | 10.0 | 0.00 | 0.00 | 0.00 | 82 | 853.2 |
| 20260507120115 | 47 | 237 | 7.0 | 10.0 | 0.00 | 0.00 | 0.00 | 82 | 853.2 |
| 20260507115815 | 47 | 220 | 8.0 | 14.0 | 0.00 | 0.00 | 0.00 | 82 | 853.2 |
| 20260507115716 | 47 | 220 | 8.0 | 14.0 | 0.00 | 0.00 | 0.00 | 82 | 853.2 |
| 20260507115312 | 47 | 215 | 7.0 | 10.0 | 0.00 | 0.00 | 0.00 | 82 | 853.2 |
| 20260507115113 | 47 | 211 | 6.0 | 10.0 | 0.00 | 0.00 | 0.00 | 81 | 853.2 |
| 20260507114913 | 47 | 220 | 6.0 | 9.0 | 0.00 | 0.00 | 0.00 | 81 | 853.2 |
| 20260507114812 | 47 | 219 | 7.0 | 12.0 | 0.00 | 0.00 | 0.00 | 81 | 853.2 |
| 20260507114712 | 48 | 219 | 7.0 | 12.0 | 0.00 | 0.00 | 0.00 | 81 | 853.2 |
| 20260507114512 | 48 | 223 | 6.0 | 8.0 | 0.00 | 0.00 | 0.00 | 81 | 853.2 |
| 20260507114309 | 48 | 220 | 7.0 | 11.0 | 0.00 | 0.00 | 0.00 | 81 | 853.2 |
| 20260507114120 | 48 | 219 | 6.0 | 10.0 | 0.00 | 0.00 | 0.00 | 81 | 853.1 |
| 20260507113910 | 48 | 227 | 5.0 | 7.0 | 0.00 | 0.00 | 0.00 | 81 | 853.2 |
| 20260507113809 | 48 | 224 | 5.0 | 8.0 | 0.00 | 0.00 | 0.00 | 81 | 853.1 |
| 20260507113710 | 48 | 222 | 6.0 | 8.0 | 0.00 | 0.00 | 0.00 | 81 | 853.1 |
| 20260507113306 | 49 | 228 | 5.0 | 7.0 | 0.00 | 0.00 | 0.00 | 80 | 853.1 |
| 20260507113107 | 49 | 230 | 6.0 | 9.0 | 0.00 | 0.00 | 0.00 | 80 | 853.2 |
| 20260507112907 | 49 | 234 | 6.0 | 10.0 | 0.00 | 0.00 | 0.00 | 80 | 853.2 |
| 20260507112806 | 49 | 229 | 6.0 | 10.0 | 0.00 | 0.00 | 0.00 | 80 | 853.2 |
| 20260507112250 | 50 | 229 | 6.0 | 9.0 | 0.00 | 0.00 | 0.00 | 79 | 853.2 |
| 20260507112051 | 50 | 232 | 6.0 | 9.0 | 0.00 | 0.00 | 0.00 | 79 | 853.1 |
| 20260507111851 | 50 | 236 | 6.0 | 8.0 | 0.00 | 0.00 | 0.00 | 79 | 853.1 |
| 20260507111750 | 51 | 240 | 6.0 | 9.0 | 0.00 | 0.00 | 0.00 | 78 | 853.0 |
| 20260507111653 | 51 | 239 | 7.0 | 9.0 | 0.00 | 0.00 | 0.00 | 78 | 853.0 |
| 20260507111451 | 51 | 234 | 5.0 | 9.0 | 0.00 | 0.00 | 0.00 | 78 | 853.0 |
| 20260507111247 | 51 | 234 | 5.0 | 7.0 | 0.00 | 0.00 | 0.00 | 78 | 853.0 |
| 20260507111048 | 51 | 258 | 4.0 | 6.0 | 0.00 | 0.00 | 0.00 | 78 | 853.0 |
| 20260507110848 | 51 | 240 | 5.0 | 8.0 | 0.00 | 0.00 | 0.00 | 78 | 853.0 |
| 20260507110746 | 51 | 233 | 5.0 | 8.0 | 0.00 | 0.00 | 0.00 | 78 | 853.0 |
| 20260507110447 | 51 | 217 | 7.0 | 10.0 | 0.00 | 0.00 | 0.00 | 78 | 852.9 |
| 20260507110243 | 51 | 219 | 5.0 | 10.0 | 0.00 | 0.00 | 0.00 | 78 | 852.9 |
| 20260507110045 | 51 | 225 | 5.0 | 8.0 | 0.00 | 0.00 | 0.00 | 78 | 852.9 |
| 20260507105743 | 51 | 233 | 7.0 | 11.0 | 0.00 | 0.00 | 0.00 | 78 | 852.9 |
| 20260507105644 | 51 | 234 | 6.0 | 9.0 | 0.00 | 0.00 | 0.00 | 78 | 852.9 |
| 20260507105444 | 52 | 241 | 6.0 | 8.0 | 0.00 | 0.00 | 0.00 | 78 | 852.9 |
| 20260507105240 | 51 | 233 | 6.0 | 11.0 | 0.00 | 0.00 | 0.00 | 78 | 852.9 |
| 20260507105040 | 51 | 232 | 6.0 | 11.0 | 0.00 | 0.00 | 0.00 | 79 | 852.9 |
| 20260507104840 | 51 | 233 | 5.0 | 7.0 | 0.00 | 0.00 | 0.00 | 79 | 852.9 |
| 20260507104740 | 51 | 226 | 5.0 | 6.0 | 0.00 | 0.00 | 0.00 | 79 | 852.9 |
| 20260507104640 | 50 | 224 | 4.0 | 6.0 | 0.00 | 0.00 | 0.00 | 79 | 852.9 |
| 20260507104441 | 50 | 220 | 6.0 | 8.0 | 0.00 | 0.00 | 0.00 | 79 | 853.0 |
| 20260507104237 | 50 | 230 | 6.0 | 9.0 | 0.00 | 0.00 | 0.00 | 79 | 853.0 |
| 20260507104039 | 50 | 246 | 5.0 | 6.0 | 0.00 | 0.00 | 0.00 | 79 | 853.0 |
| 20260507104026 | 51 | 223 | 6.0 | 10.0 | 0.00 | 0.00 | 0.00 | 78 | 852.9 |
| 20260507103838 | 51 | 226 | 6.0 | 10.0 | 0.00 | 0.00 | 0.00 | 78 | 852.9 |
| 20260507103737 | 51 | 223 | 6.0 | 10.0 | 0.00 | 0.00 | 0.00 | 78 | 852.9 |
| 20260507103639 | 51 | 222 | 6.0 | 10.0 | 0.00 | 0.00 | 0.00 | 78 | 852.9 |
| 20260507103438 | 51 | 225 | 6.0 | 9.0 | 0.00 | 0.00 | 0.00 | 79 | 852.9 |
| 20260507103234 | 51 | 234 | 6.0 | 8.0 | 0.00 | 0.00 | 0.00 | 78 | 852.8 |
| 20260507103035 | 51 | 230 | 6.0 | 9.0 | 0.00 | 0.00 | 0.00 | 79 | 852.8 |
| 20260507102835 | 51 | 225 | 5.0 | 8.0 | 0.00 | 0.00 | 0.00 | 79 | 852.8 |
| 20260507102734 | 51 | 228 | 5.0 | 8.0 | 0.00 | 0.00 | 0.00 | 79 | 852.8 |
| 20260507102634 | 51 | 225 | 5.0 | 8.0 | 0.00 | 0.00 | 0.00 | 79 | 852.8 |
| 20260507102434 | 51 | 221 | 5.0 | 8.0 | 0.00 | 0.00 | 0.00 | 79 | 852.8 |
| 20260507102231 | 51 | 236 | 5.0 | 7.0 | 0.00 | 0.00 | 0.00 | 79 | 852.8 |
| 20260507102032 | 51 | 217 | 4.0 | 7.0 | 0.00 | 0.00 | 0.00 | 79 | 852.7 |
| 20260507101833 | 51 | 214 | 5.0 | 9.0 | 0.00 | 0.00 | 0.00 | 79 | 852.8 |
| 20260507101731 | 51 | 225 | 6.0 | 9.0 | 0.00 | 0.00 | 0.00 | 79 | 852.8 |
| 20260507101632 | 50 | 228 | 6.0 | 9.0 | 0.00 | 0.00 | 0.00 | 79 | 852.7 |
| 20260507101431 | 50 | 232 | 6.0 | 9.0 | 0.00 | 0.00 | 0.00 | 79 | 852.8 |
| 20260507101228 | 50 | 236 | 6.0 | 9.0 | 0.00 | 0.00 | 0.00 | 79 | 852.8 |
| 20260507101039 | 51 | 229 | 6.0 | 9.0 | 0.00 | 0.00 | 0.00 | 79 | 852.7 |
| 20260507101029 | 50 | 232 | 7.0 | 10.0 | 0.00 | 0.00 | 0.00 | 79 | 852.7 |
| 20260507100828 | 51 | 230 | 7.0 | 10.0 | 0.00 | 0.00 | 0.00 | 79 | 852.7 |
| 20260507100728 | 51 | 229 | 6.0 | 9.0 | 0.00 | 0.00 | 0.00 | 79 | 852.7 |
| 20260507100629 | 51 | 232 | 7.0 | 12.0 | 0.00 | 0.00 | 0.00 | 79 | 852.7 |
| 20260507100428 | 51 | 229 | 6.0 | 12.0 | 0.00 | 0.00 | 0.00 | 79 | 852.7 |
| 20260507100225 | 51 | 235 | 6.0 | 9.0 | 0.00 | 0.00 | 0.00 | 79 | 852.7 |
| 20260507100026 | 51 | 238 | 7.0 | 10.0 | 0.00 | 0.00 | 0.00 | 79 | 852.7 |
| 20260507095826 | 51 | 239 | 6.0 | 10.0 | 0.00 | 0.00 | 0.00 | 80 | 852.6 |
| 20260507095725 | 51 | 237 | 6.0 | 9.0 | 0.00 | 0.00 | 0.00 | 80 | 852.6 |
| 20260507095626 | 51 | 243 | 5.0 | 7.0 | 0.00 | 0.00 | 0.00 | 80 | 852.6 |
| 20260507095426 | 50 | 238 | 5.0 | 8.0 | 0.00 | 0.00 | 0.00 | 80 | 852.6 |
| 20260507095222 | 50 | 234 | 5.0 | 9.0 | 0.00 | 0.00 | 0.00 | 80 | 852.6 |
| 20260507095023 | 50 | 235 | 6.0 | 8.0 | 0.00 | 0.00 | 0.00 | 80 | 852.6 |
| 20260507094823 | 50 | 225 | 6.0 | 8.0 | 0.00 | 0.00 | 0.00 | 80 | 852.6 |
| 20260507094722 | 50 | 237 | 6.0 | 9.0 | 0.00 | 0.00 | 0.00 | 80 | 852.6 |
| 20260507094623 | 50 | 242 | 6.0 | 9.0 | 0.00 | 0.00 | 0.00 | 80 | 852.5 |
| 20260507094422 | 50 | 239 | 6.0 | 10.0 | 0.00 | 0.00 | 0.00 | 80 | 852.5 |
| 20260507094219 | 50 | 239 | 6.0 | 10.0 | 0.00 | 0.00 | 0.00 | 80 | 852.5 |
| 20260507094021 | 49 | 235 | 7.0 | 10.0 | 0.00 | 0.00 | 0.00 | 80 | 852.5 |
| 20260507093820 | 49 | 247 | 6.0 | 9.0 | 0.00 | 0.00 | 0.00 | 80 | 852.5 |
| 20260507093719 | 49 | 248 | 6.0 | 8.0 | 0.00 | 0.00 | 0.00 | 81 | 852.5 |
| 20260507093621 | 49 | 244 | 6.0 | 9.0 | 0.00 | 0.00 | 0.00 | 81 | 852.6 |
| 20260507093421 | 49 | 228 | 7.0 | 10.0 | 0.00 | 0.00 | 0.00 | 81 | 852.6 |
| 20260507093216 | 49 | 231 | 7.0 | 10.0 | 0.00 | 0.00 | 0.00 | 81 | 852.6 |
| 20260507093018 | 49 | 240 | 7.0 | 11.0 | 0.00 | 0.00 | 0.00 | 80 | 852.6 |
| 20260507092817 | 49 | 235 | 7.0 | 14.0 | 0.00 | 0.00 | 0.00 | 80 | 852.6 |
| 20260507092716 | 49 | 241 | 8.0 | 14.0 | 0.00 | 0.00 | 0.00 | 80 | 852.5 |
| 20260507092617 | 49 | 242 | 8.0 | 14.0 | 0.00 | 0.00 | 0.00 | 80 | 852.5 |
| 20260507092417 | 49 | 237 | 8.0 | 9.0 | 0.00 | 0.00 | 0.00 | 80 | 852.5 |
| 20260507092213 | 49 | 241 | 5.0 | 8.0 | 0.00 | 0.00 | 0.00 | 80 | 852.4 |
| 20260507092013 | 49 | 240 | 5.0 | 11.0 | 0.00 | 0.00 | 0.00 | 80 | 852.4 |
| 20260507091813 | 49 | 244 | 7.0 | 11.0 | 0.00 | 0.00 | 0.00 | 80 | 852.4 |
| 20260507091712 | 48 | 244 | 7.0 | 10.0 | 0.00 | 0.00 | 0.00 | 80 | 852.4 |
| 20260507091613 | 48 | 243 | 7.0 | 10.0 | 0.00 | 0.00 | 0.00 | 80 | 852.4 |
| 20260507091413 | 49 | 241 | 8.0 | 12.0 | 0.00 | 0.00 | 0.00 | 80 | 852.4 |
| 20260507091209 | 49 | 242 | 7.0 | 9.0 | 0.00 | 0.00 | 0.00 | 80 | 852.5 |
| 20260507091010 | 49 | 234 | 8.0 | 12.0 | 0.00 | 0.00 | 0.00 | 80 | 852.4 |
| 20260507090810 | 49 | 233 | 7.0 | 11.0 | 0.00 | 0.00 | 0.00 | 80 | 852.3 |
| 20260507090709 | 49 | 234 | 7.0 | 10.0 | 0.00 | 0.00 | 0.00 | 80 | 852.3 |
| 20260507090610 | 49 | 237 | 7.0 | 11.0 | 0.00 | 0.00 | 0.00 | 80 | 852.2 |
| 20260507090409 | 50 | 246 | 8.0 | 11.0 | 0.00 | 0.00 | 0.00 | 80 | 852.2 |
| 20260507090206 | 50 | 250 | 7.0 | 11.0 | 0.00 | 0.00 | 0.00 | 80 | 852.2 |
| 20260507090007 | 49 | 234 | 7.0 | 9.0 | 0.00 | 0.00 | 0.00 | 80 | 852.2 |
| 20260507085808 | 49 | 230 | 7.0 | 9.0 | 0.00 | 0.00 | 0.00 | 80 | 852.2 |
| 20260507085706 | 49 | 234 | 7.0 | 9.0 | 0.00 | 0.00 | 0.00 | 80 | 852.2 |
| 20260507085608 | 49 | 235 | 7.0 | 11.0 | 0.00 | 0.00 | 0.00 | 80 | 852.2 |
| 20260507085408 | 49 | 244 | 6.0 | 11.0 | 0.00 | 0.00 | 0.00 | 80 | 852.2 |
| 20260507085203 | 50 | 245 | 6.0 | 9.0 | 0.00 | 0.00 | 0.00 | 79 | 852.2 |
| 20260507084804 | 50 | 241 | 7.0 | 12.0 | 0.00 | 0.00 | 0.00 | 79 | 852.1 |
| 20260507084650 | 50 | 241 | 7.0 | 12.0 | 0.00 | 0.00 | 0.00 | 79 | 852.1 |
| 20260507084351 | 50 | 236 | 8.0 | 11.0 | 0.00 | 0.00 | 0.00 | 79 | 852.1 |
| 20260507084147 | 50 | 230 | 8.0 | 11.0 | 0.00 | 0.00 | 0.00 | 79 | 852.1 |
| 20260507083748 | 51 | 242 | 6.0 | 12.0 | 0.00 | 0.00 | 0.00 | 79 | 851.9 |
| 20260507083647 | 51 | 243 | 6.0 | 12.0 | 0.00 | 0.00 | 0.00 | 79 | 851.9 |
| 20260507083347 | 51 | 236 | 7.0 | 14.0 | 0.00 | 0.00 | 0.00 | 79 | 851.8 |
| 20260507083143 | 51 | 246 | 6.0 | 13.0 | 0.00 | 0.00 | 0.00 | 79 | 851.7 |
| 20260507082945 | 51 | 244 | 5.0 | 9.0 | 0.00 | 0.00 | 0.00 | 80 | 851.6 |
| 20260507082744 | 50 | 236 | 6.0 | 9.0 | 0.00 | 0.00 | 0.00 | 80 | 851.7 |
| 20260507082643 | 50 | 235 | 6.0 | 12.0 | 0.00 | 0.00 | 0.00 | 80 | 851.7 |
| 20260507082546 | 50 | 232 | 7.0 | 12.0 | 0.00 | 0.00 | 0.00 | 79 | 851.7 |
| 20260507082343 | 50 | 224 | 8.0 | 13.0 | 0.00 | 0.00 | 0.00 | 79 | 851.7 |
| 20260507082140 | 50 | 216 | 8.0 | 13.0 | 0.00 | 0.00 | 0.00 | 79 | 851.7 |
| 20260507081943 | 50 | 213 | 7.0 | 11.0 | 0.00 | 0.00 | 0.00 | 80 | 851.7 |
| 20260507081742 | 50 | 218 | 6.0 | 10.0 | 0.00 | 0.00 | 0.00 | 80 | 851.6 |
| 20260507081641 | 50 | 226 | 6.0 | 11.0 | 0.00 | 0.00 | 0.00 | 80 | 851.6 |
| 20260507081540 | 50 | 227 | 8.0 | 12.0 | 0.00 | 0.00 | 0.00 | 80 | 851.5 |
| 20260507081137 | 50 | 238 | 6.0 | 10.0 | 0.00 | 0.00 | 0.00 | 80 | 851.5 |
| 20260507080939 | 50 | 243 | 6.0 | 11.0 | 0.00 | 0.00 | 0.00 | 80 | 851.5 |
| 20260507080739 | 50 | 238 | 8.0 | 11.0 | 0.00 | 0.00 | 0.00 | 80 | 851.4 |
| 20260507080637 | 49 | 236 | 8.0 | 12.0 | 0.00 | 0.00 | 0.00 | 80 | 851.4 |
| 20260507080539 | 49 | 235 | 8.0 | 12.0 | 0.00 | 0.00 | 0.00 | 80 | 851.4 |
| 20260507080338 | 49 | 218 | 8.0 | 13.0 | 0.00 | 0.00 | 0.00 | 80 | 851.5 |
| 20260507080134 | 49 | 221 | 9.0 | 13.0 | 0.00 | 0.00 | 0.00 | 80 | 851.5 |
| 20260507075735 | 49 | 215 | 7.0 | 15.0 | 0.00 | 0.00 | 0.00 | 80 | 851.5 |
| 20260507075634 | 49 | 212 | 7.0 | 15.0 | 0.00 | 0.00 | 0.00 | 80 | 851.5 |
| 20260507075534 | 49 | 218 | 8.0 | 15.0 | 0.00 | 0.00 | 0.00 | 80 | 851.5 |
| 20260507075334 | 49 | 222 | 6.0 | 14.0 | 0.00 | 0.00 | 0.00 | 81 | 851.4 |
| 20260507075131 | 49 | 230 | 7.0 | 13.0 | 0.00 | 0.00 | 0.00 | 80 | 851.4 |
| 20260507074932 | 49 | 230 | 8.0 | 13.0 | 0.00 | 0.00 | 0.00 | 81 | 851.3 |
| 20260507074732 | 49 | 222 | 10.0 | 15.0 | 0.00 | 0.00 | 0.00 | 81 | 851.2 |
| 20260507074630 | 48 | 216 | 9.0 | 15.0 | 0.00 | 0.00 | 0.00 | 81 | 851.2 |
| 20260507074532 | 48 | 216 | 8.0 | 14.0 | 0.00 | 0.00 | 0.00 | 81 | 851.3 |
| 20260507074331 | 48 | 213 | 10.0 | 15.0 | 0.00 | 0.00 | 0.00 | 81 | 851.2 |
| 20260507074128 | 48 | 218 | 10.0 | 15.0 | 0.00 | 0.00 | 0.00 | 81 | 851.1 |
| 20260507073928 | 48 | 210 | 8.0 | 12.0 | 0.00 | 0.00 | 0.00 | 81 | 851.1 |
| 20260507073728 | 48 | 203 | 8.0 | 15.0 | 0.00 | 0.00 | 0.00 | 81 | 851.1 |
| 20260507073628 | 48 | 211 | 8.0 | 15.0 | 0.00 | 0.00 | 0.00 | 81 | 851.1 |
| 20260507073528 | 48 | 215 | 7.0 | 15.0 | 0.00 | 0.00 | 0.00 | 81 | 851.1 |
| 20260507073329 | 48 | 214 | 7.0 | 15.0 | 0.00 | 0.00 | 0.00 | 81 | 851.1 |
| 20260507073125 | 48 | 209 | 7.0 | 12.0 | 0.00 | 0.00 | 0.00 | 81 | 851.2 |
| 20260507072926 | 48 | 210 | 9.0 | 14.0 | 0.00 | 0.00 | 0.00 | 81 | 851.2 |
| 20260507072727 | 48 | 203 | 8.0 | 14.0 | 0.00 | 0.00 | 0.00 | 81 | 851.1 |
| 20260507072625 | 48 | 209 | 8.0 | 14.0 | 0.00 | 0.00 | 0.00 | 81 | 851.1 |
| 20260507072526 | 48 | 203 | 8.0 | 14.0 | 0.00 | 0.00 | 0.00 | 81 | 851.1 |
| 20260507072326 | 48 | 202 | 9.0 | 14.0 | 0.00 | 0.00 | 0.00 | 81 | 851.0 |
| 20260507072122 | 48 | 209 | 7.0 | 14.0 | 0.00 | 0.00 | 0.00 | 81 | 850.9 |
| 20260507071924 | 48 | 201 | 7.0 | 11.0 | 0.00 | 0.00 | 0.00 | 81 | 850.9 |
| 20260507071722 | 48 | 214 | 6.0 | 12.0 | 0.00 | 0.00 | 0.00 | 81 | 850.8 |
| 20260507071622 | 48 | 212 | 6.0 | 12.0 | 0.00 | 0.00 | 0.00 | 81 | 850.8 |
| 20260507071523 | 48 | 208 | 5.0 | 10.0 | 0.00 | 0.00 | 0.00 | 81 | 850.8 |
| 20260507071323 | 48 | 183 | 5.0 | 8.0 | 0.00 | 0.00 | 0.00 | 81 | 850.8 |
| 20260507071119 | 48 | 185 | 6.0 | 11.0 | 0.00 | 0.00 | 0.00 | 81 | 850.9 |
| 20260507070919 | 48 | 189 | 7.0 | 14.0 | 0.00 | 0.00 | 0.00 | 82 | 850.9 |
| 20260507070719 | 48 | 199 | 6.0 | 13.0 | 0.00 | 0.00 | 0.00 | 82 | 850.8 |
| 20260507070618 | 48 | 202 | 6.0 | 10.0 | 0.00 | 0.00 | 0.00 | 82 | 850.9 |
| 20260507070520 | 48 | 193 | 6.0 | 10.0 | 0.00 | 0.00 | 0.00 | 82 | 850.9 |
| 20260507070330 | 48 | 230 | 5.0 | 10.0 | 0.00 | 0.00 | 0.00 | 82 | 850.8 |
| 20260507070115 | 48 | 220 | 4.0 | 10.0 | 0.00 | 0.00 | 0.00 | 82 | 850.7 |
| 20260507065917 | 48 | 234 | 4.0 | 8.0 | 0.00 | 0.00 | 0.00 | 82 | 850.6 |
| 20260507065716 | 47 | 233 | 7.0 | 11.0 | 0.00 | 0.00 | 0.00 | 82 | 850.6 |
| 20260507065615 | 47 | 231 | 6.0 | 11.0 | 0.00 | 0.00 | 0.00 | 82 | 850.6 |
| 20260507065112 | 47 | 203 | 8.0 | 13.0 | 0.00 | 0.00 | 0.00 | 82 | 850.5 |
| 20260507064913 | 47 | 204 | 9.0 | 16.0 | 0.00 | 0.00 | 0.00 | 82 | 850.5 |
| 20260507064714 | 47 | 207 | 10.0 | 16.0 | 0.00 | 0.00 | 0.00 | 82 | 850.5 |
| 20260507064612 | 47 | 200 | 10.0 | 16.0 | 0.00 | 0.00 | 0.00 | 82 | 850.5 |
| 20260507064313 | 47 | 201 | 11.0 | 19.0 | 0.00 | 0.00 | 0.00 | 82 | 850.5 |
| 20260507064110 | 47 | 206 | 9.0 | 16.0 | 0.00 | 0.00 | 0.00 | 82 | 850.5 |
| 20260507063911 | 47 | 206 | 6.0 | 12.0 | 0.00 | 0.00 | 0.00 | 82 | 850.5 |
| 20260507063711 | 47 | 210 | 10.0 | 22.0 | 0.00 | 0.00 | 0.00 | 82 | 850.5 |
| 20260507063610 | 47 | 206 | 11.0 | 22.0 | 0.00 | 0.00 | 0.00 | 82 | 850.5 |
| 20260507063510 | 47 | 208 | 11.0 | 15.0 | 0.00 | 0.00 | 0.00 | 82 | 850.5 |
| 20260507063310 | 47 | 207 | 11.0 | 15.0 | 0.00 | 0.00 | 0.00 | 82 | 850.3 |
| 20260507063107 | 46 | 199 | 15.0 | 22.0 | 0.00 | 0.00 | 0.00 | 82 | 850.3 |
| 20260507062907 | 46 | 203 | 15.0 | 22.0 | 0.00 | 0.00 | 0.00 | 82 | 850.3 |
| 20260507062707 | 46 | 199 | 13.0 | 18.0 | 0.00 | 0.00 | 0.00 | 82 | 850.3 |
| 20260507062607 | 46 | 201 | 14.0 | 22.0 | 0.00 | 0.00 | 0.00 | 82 | 850.3 |
| 20260507062508 | 46 | 197 | 15.0 | 22.0 | 0.00 | 0.00 | 0.00 | 82 | 850.3 |
| 20260507062308 | 46 | 193 | 14.0 | 21.0 | 0.00 | 0.00 | 0.00 | 82 | 850.3 |
| 20260507062104 | 46 | 194 | 13.0 | 20.0 | 0.00 | 0.00 | 0.00 | 82 | 850.3 |
| 20260507061905 | 46 | 191 | 14.0 | 20.0 | 0.00 | 0.00 | 0.00 | 82 | 850.2 |
| 20260507061706 | 46 | 191 | 13.0 | 23.0 | 0.00 | 0.00 | 0.00 | 82 | 850.2 |
| 20260507061604 | 47 | 191 | 14.0 | 23.0 | 0.00 | 0.00 | 0.00 | 82 | 850.1 |
| 20260507061506 | 47 | 193 | 14.0 | 19.0 | 0.00 | 0.00 | 0.00 | 82 | 850.1 |
| 20260507061306 | 47 | 198 | 15.0 | 21.0 | 0.00 | 0.00 | 0.00 | 82 | 850.1 |
| 20260507061047 | 47 | 198 | 14.0 | 18.0 | 0.00 | 0.00 | 0.00 | 82 | 850.1 |
| 20260507060849 | 47 | 203 | 12.0 | 18.0 | 0.00 | 0.00 | 0.00 | 83 | 850.1 |
| 20260507060649 | 46 | 199 | 14.0 | 22.0 | 0.00 | 0.00 | 0.00 | 83 | 850.0 |
| 20260507060547 | 46 | 199 | 14.0 | 22.0 | 0.00 | 0.00 | 0.00 | 83 | 850.0 |
| 20260507060449 | 46 | 199 | 13.0 | 22.0 | 0.00 | 0.00 | 0.00 | 83 | 850.0 |
| 20260507060248 | 46 | 195 | 12.0 | 22.0 | 0.00 | 0.00 | 0.00 | 83 | 850.0 |
| 20260507060044 | 46 | 194 | 13.0 | 22.0 | 0.00 | 0.00 | 0.00 | 83 | 850.0 |
| 20260507055846 | 46 | 199 | 13.0 | 23.0 | 0.00 | 0.00 | 0.00 | 83 | 850.0 |
| 20260507055645 | 46 | 193 | 12.0 | 15.0 | 0.00 | 0.00 | 0.00 | 83 | 850.0 |
| 20260507055544 | 46 | 189 | 12.0 | 19.0 | 0.00 | 0.00 | 0.00 | 83 | 850.0 |
| 20260507055446 | 46 | 190 | 13.0 | 19.0 | 0.00 | 0.00 | 0.00 | 83 | 850.0 |
| 20260507055245 | 46 | 193 | 12.0 | 19.0 | 0.00 | 0.00 | 0.00 | 83 | 850.0 |
| 20260507055041 | 46 | 193 | 13.0 | 22.0 | 0.00 | 0.00 | 0.00 | 83 | 850.0 |
| 20260507054844 | 46 | 194 | 14.0 | 25.0 | 0.00 | 0.00 | 0.00 | 83 | 850.0 |
| 20260507054541 | 46 | 194 | 14.0 | 24.0 | 0.00 | 0.00 | 0.00 | 82 | 850.0 |
| 20260507054442 | 46 | 195 | 13.0 | 21.0 | 0.00 | 0.00 | 0.00 | 83 | 850.1 |
| 20260507054243 | 46 | 191 | 13.0 | 19.0 | 0.00 | 0.00 | 0.00 | 83 | 850.1 |
| 20260507054038 | 45 | 191 | 12.0 | 17.0 | 0.00 | 0.00 | 0.00 | 83 | 850.1 |
| 20260507053839 | 45 | 193 | 11.0 | 16.0 | 0.00 | 0.00 | 0.00 | 83 | 850.1 |
| 20260507053639 | 46 | 193 | 11.0 | 16.0 | 0.00 | 0.00 | 0.00 | 83 | 850.1 |
| 20260507053537 | 46 | 188 | 13.0 | 16.0 | 0.00 | 0.00 | 0.00 | 83 | 850.1 |
| 20260507053439 | 46 | 188 | 14.0 | 21.0 | 0.00 | 0.00 | 0.00 | 83 | 850.1 |
| 20260507053238 | 46 | 190 | 15.0 | 22.0 | 0.00 | 0.00 | 0.00 | 83 | 850.0 |
| 20260507053035 | 46 | 191 | 14.0 | 22.0 | 0.00 | 0.00 | 0.00 | 83 | 850.0 |
| 20260507052835 | 46 | 180 | 12.0 | 17.0 | 0.00 | 0.00 | 0.00 | 83 | 850.0 |
| 20260507052635 | 46 | 184 | 10.0 | 21.0 | 0.00 | 0.00 | 0.00 | 83 | 849.9 |
| 20260507052535 | 46 | 186 | 12.0 | 21.0 | 0.00 | 0.00 | 0.00 | 83 | 849.9 |
| 20260507052235 | 46 | 182 | 12.0 | 19.0 | 0.00 | 0.00 | 0.00 | 83 | 849.9 |
| 20260507052032 | 46 | 181 | 12.0 | 19.0 | 0.00 | 0.00 | 0.00 | 83 | 849.9 |
| 20260507051833 | 46 | 183 | 12.0 | 22.0 | 0.00 | 0.00 | 0.00 | 83 | 850.0 |
| 20260507051633 | 46 | 187 | 13.0 | 23.0 | 0.00 | 0.00 | 0.00 | 83 | 850.0 |
| 20260507051532 | 46 | 186 | 14.0 | 23.0 | 0.00 | 0.00 | 0.00 | 84 | 850.0 |
| 20260507051430 | 45 | 188 | 14.0 | 23.0 | 0.00 | 0.00 | 0.00 | 84 | 850.0 |
| 20260507051230 | 45 | 179 | 12.0 | 20.0 | 0.00 | 0.00 | 0.00 | 84 | 850.0 |
| 20260507051025 | 45 | 184 | 10.0 | 18.0 | 0.00 | 0.00 | 0.00 | 84 | 850.1 |
| 20260507050826 | 45 | 187 | 11.0 | 17.0 | 0.00 | 0.00 | 0.00 | 84 | 850.1 |
| 20260507050627 | 45 | 192 | 11.0 | 18.0 | 0.00 | 0.00 | 0.00 | 84 | 850.1 |
| 20260507050525 | 45 | 194 | 10.0 | 18.0 | 0.00 | 0.00 | 0.00 | 84 | 850.1 |
| 20260507050427 | 45 | 191 | 11.0 | 18.0 | 0.00 | 0.00 | 0.00 | 84 | 850.1 |
| 20260507050226 | 45 | 185 | 10.0 | 15.0 | 0.00 | 0.00 | 0.00 | 84 | 850.1 |
| 20260507050023 | 45 | 185 | 10.0 | 17.0 | 0.00 | 0.00 | 0.00 | 84 | 850.1 |
| 20260507045824 | 45 | 191 | 12.0 | 18.0 | 0.00 | 0.00 | 0.00 | 84 | 850.0 |
| 20260507045624 | 45 | 182 | 12.0 | 18.0 | 0.00 | 0.00 | 0.00 | 84 | 850.0 |
| 20260507045522 | 45 | 176 | 11.0 | 16.0 | 0.00 | 0.00 | 0.00 | 84 | 850.0 |
| 20260507045420 | 45 | 180 | 11.0 | 18.0 | 0.00 | 0.00 | 0.00 | 83 | 850.0 |
| 20260507045219 | 45 | 185 | 12.0 | 20.0 | 0.00 | 0.00 | 0.00 | 84 | 849.9 |
| 20260507045016 | 45 | 183 | 9.0 | 15.0 | 0.00 | 0.00 | 0.00 | 84 | 849.7 |
| 20260507044617 | 45 | 174 | 9.0 | 13.0 | 0.00 | 0.00 | 0.00 | 84 | 849.6 |
| 20260507044516 | 45 | 180 | 10.0 | 13.0 | 0.00 | 0.00 | 0.00 | 84 | 849.6 |
| 20260507044416 | 45 | 182 | 11.0 | 20.0 | 0.00 | 0.00 | 0.00 | 84 | 849.6 |
| 20260507044216 | 44 | 180 | 12.0 | 20.0 | 0.00 | 0.00 | 0.00 | 84 | 849.5 |
| 20260507044013 | 44 | 181 | 13.0 | 24.0 | 0.00 | 0.00 | 0.00 | 84 | 849.5 |
| 20260507043813 | 44 | 176 | 12.0 | 25.0 | 0.00 | 0.00 | 0.00 | 84 | 849.5 |
| 20260507043513 | 44 | 180 | 12.0 | 19.0 | 0.00 | 0.00 | 0.00 | 84 | 849.5 |
| 20260507043413 | 44 | 174 | 13.0 | 19.0 | 0.00 | 0.00 | 0.00 | 84 | 849.5 |
| 20260507043214 | 44 | 184 | 15.0 | 22.0 | 0.00 | 0.00 | 0.00 | 84 | 849.5 |
| 20260507043010 | 44 | 185 | 14.0 | 22.0 | 0.00 | 0.00 | 0.00 | 84 | 849.5 |
| 20260507042812 | 44 | 185 | 13.0 | 18.0 | 0.00 | 0.00 | 0.00 | 84 | 849.5 |
| 20260507042611 | 44 | 187 | 13.0 | 20.0 | 0.00 | 0.00 | 0.00 | 84 | 849.5 |
| 20260507042510 | 44 | 186 | 13.0 | 20.0 | 0.00 | 0.00 | 0.00 | 84 | 849.5 |
| 20260507042412 | 44 | 189 | 13.0 | 24.0 | 0.00 | 0.00 | 0.00 | 84 | 849.5 |
| 20260507042213 | 44 | 193 | 14.0 | 24.0 | 0.00 | 0.00 | 0.00 | 84 | 849.5 |
| 20260507042007 | 44 | 191 | 13.0 | 17.0 | 0.00 | 0.00 | 0.00 | 84 | 849.6 |
| 20260507041808 | 44 | 193 | 12.0 | 17.0 | 0.00 | 0.00 | 0.00 | 84 | 849.6 |
| 20260507041608 | 44 | 191 | 15.0 | 23.0 | 0.00 | 0.00 | 0.00 | 84 | 849.5 |
| 20260507041507 | 44 | 190 | 16.0 | 23.0 | 0.00 | 0.00 | 0.00 | 84 | 849.5 |
| 20260507041407 | 44 | 189 | 16.0 | 23.0 | 0.00 | 0.00 | 0.00 | 84 | 849.5 |
| 20260507041208 | 44 | 186 | 15.0 | 25.0 | 0.00 | 0.00 | 0.00 | 84 | 849.5 |
| 20260507041004 | 44 | 184 | 16.0 | 25.0 | 0.00 | 0.00 | 0.00 | 84 | 849.5 |
| 20260507040805 | 44 | 184 | 16.0 | 29.0 | 0.00 | 0.00 | 0.00 | 84 | 849.4 |
| 20260507040606 | 44 | 187 | 15.0 | 29.0 | 0.00 | 0.00 | 0.00 | 84 | 849.3 |
| 20260507040504 | 44 | 188 | 15.0 | 32.0 | 0.00 | 0.00 | 0.00 | 84 | 849.3 |
| 20260507040405 | 44 | 189 | 15.0 | 32.0 | 0.00 | 0.00 | 0.00 | 84 | 849.3 |
| 20260507040205 | 44 | 189 | 15.0 | 25.0 | 0.00 | 0.00 | 0.00 | 84 | 849.4 |
| 20260507040001 | 44 | 189 | 17.0 | 27.0 | 0.00 | 0.00 | 0.00 | 84 | 849.3 |
| 20260507035802 | 44 | 192 | 17.0 | 27.0 | 0.00 | 0.00 | 0.00 | 84 | 849.3 |
| 20260507035602 | 44 | 194 | 15.0 | 23.0 | 0.00 | 0.00 | 0.00 | 84 | 849.3 |
| 20260507035502 | 0 | 193 | 14.0 | 20.0 | 0.00 | 0.00 | 0.00 | ||
| 20260507035402 | 44 | 190 | 16.0 | 27.0 | 0.00 | 0.00 | 0.00 | 84 | 849.3 |
| 20260507035202 | 44 | 191 | 17.0 | 27.0 | 0.00 | 0.00 | 0.00 | 84 | 849.3 |
| 20260507034958 | 44 | 189 | 18.0 | 26.0 | 0.00 | 0.00 | 0.00 | 84 | 849.3 |
| 20260507034759 | 44 | 198 | 17.0 | 26.0 | 0.00 | 0.00 | 0.00 | 84 | 849.3 |
| 20260507034559 | 44 | 194 | 16.0 | 25.0 | 0.00 | 0.00 | 0.00 | 83 | 849.3 |
| 20260507034458 | 44 | 190 | 16.0 | 25.0 | 0.00 | 0.00 | 0.00 | 84 | 849.3 |
| 20260507034158 | 44 | 188 | 17.0 | 27.0 | 0.00 | 0.00 | 0.00 | 83 | 849.3 |
| 20260507033955 | 44 | 190 | 14.0 | 22.0 | 0.00 | 0.00 | 0.00 | 83 | 849.3 |
| 20260507033757 | 44 | 188 | 15.0 | 27.0 | 0.00 | 0.00 | 0.00 | 83 | 849.3 |
| 20260507033556 | 44 | 189 | 16.0 | 27.0 | 0.00 | 0.00 | 0.00 | 83 | 849.3 |
| 20260507033442 | 44 | 188 | 15.0 | 24.0 | 0.00 | 0.00 | 0.00 | 83 | 849.3 |
| 20260507033342 | 44 | 191 | 16.0 | 25.0 | 0.00 | 0.00 | 0.00 | 83 | 849.3 |
| 20260507033142 | 44 | 189 | 17.0 | 25.0 | 0.00 | 0.00 | 0.00 | 83 | 849.3 |
| 20260507032939 | 44 | 191 | 16.0 | 22.0 | 0.00 | 0.00 | 0.00 | 83 | 849.4 |
| 20260507032740 | 44 | 183 | 14.0 | 22.0 | 0.00 | 0.00 | 0.00 | 83 | 849.4 |
| 20260507032540 | 44 | 182 | 12.0 | 22.0 | 0.00 | 0.00 | 0.00 | 83 | 849.4 |
| 20260507032438 | 44 | 181 | 12.0 | 22.0 | 0.00 | 0.00 | 0.00 | 83 | 849.4 |
| 20260507032340 | 44 | 184 | 13.0 | 22.0 | 0.00 | 0.00 | 0.00 | 83 | 849.4 |
| 20260507032141 | 44 | 189 | 14.0 | 22.0 | 0.00 | 0.00 | 0.00 | 83 | 849.5 |
| 20260507031935 | 44 | 183 | 15.0 | 25.0 | 0.00 | 0.00 | 0.00 | 83 | 849.5 |
| 20260507031739 | 44 | 181 | 14.0 | 25.0 | 0.00 | 0.00 | 0.00 | 83 | 849.5 |
| 20260507031539 | 44 | 186 | 14.0 | 20.0 | 0.00 | 0.00 | 0.00 | 83 | 849.5 |
| 20260507031435 | 44 | 187 | 15.0 | 24.0 | 0.00 | 0.00 | 0.00 | 83 | 849.5 |
| 20260507031333 | 44 | 189 | 15.0 | 24.0 | 0.00 | 0.00 | 0.00 | 83 | 849.5 |
| 20260507031133 | 44 | 190 | 12.0 | 19.0 | 0.00 | 0.00 | 0.00 | 83 | 849.5 |
| 20260507030929 | 44 | 191 | 11.0 | 15.0 | 0.00 | 0.00 | 0.00 | 83 | 849.5 |
| 20260507030731 | 44 | 188 | 11.0 | 19.0 | 0.00 | 0.00 | 0.00 | 82 | 849.4 |
| 20260507030531 | 44 | 183 | 11.0 | 19.0 | 0.00 | 0.00 | 0.00 | 82 | 849.4 |
| 20260507030429 | 44 | 180 | 10.0 | 19.0 | 0.00 | 0.00 | 0.00 | 82 | 849.4 |
| 20260507030330 | 44 | 179 | 9.0 | 15.0 | 0.00 | 0.00 | 0.00 | 82 | 849.4 |
| 20260507030130 | 44 | 172 | 11.0 | 17.0 | 0.00 | 0.00 | 0.00 | 82 | 849.3 |
| 20260507025926 | 44 | 180 | 10.0 | 20.0 | 0.00 | 0.00 | 0.00 | 82 | 849.4 |
| 20260507025728 | 44 | 177 | 12.0 | 20.0 | 0.00 | 0.00 | 0.00 | 82 | 849.5 |
| 20260507025527 | 44 | 181 | 10.0 | 17.0 | 0.00 | 0.00 | 0.00 | 82 | 849.5 |
| 20260507025426 | 44 | 181 | 10.0 | 19.0 | 0.00 | 0.00 | 0.00 | 82 | 849.6 |
| 20260507025327 | 44 | 185 | 10.0 | 21.0 | 0.00 | 0.00 | 0.00 | 82 | 849.6 |
| 20260507025126 | 44 | 185 | 11.0 | 21.0 | 0.00 | 0.00 | 0.00 | 82 | 849.6 |
| 20260507024923 | 44 | 188 | 10.0 | 19.0 | 0.00 | 0.00 | 0.00 | 82 | 849.6 |
| 20260507024724 | 44 | 187 | 11.0 | 20.0 | 0.00 | 0.00 | 0.00 | 82 | 849.7 |
| 20260507024524 | 44 | 176 | 10.0 | 15.0 | 0.00 | 0.00 | 0.00 | 82 | 849.7 |
| 20260507024423 | 44 | 180 | 9.0 | 15.0 | 0.00 | 0.00 | 0.00 | 82 | 849.7 |
| 20260507024324 | 44 | 179 | 10.0 | 16.0 | 0.00 | 0.00 | 0.00 | 82 | 849.8 |
| 20260507024124 | 44 | 180 | 12.0 | 17.0 | 0.00 | 0.00 | 0.00 | 82 | 849.7 |
| 20260507023920 | 44 | 188 | 12.0 | 17.0 | 0.00 | 0.00 | 0.00 | 81 | 849.8 |
| 20260507023722 | 44 | 186 | 10.0 | 17.0 | 0.00 | 0.00 | 0.00 | 81 | 849.8 |
| 20260507023521 | 44 | 194 | 10.0 | 19.0 | 0.00 | 0.00 | 0.00 | 81 | 849.8 |
| 20260507023420 | 44 | 196 | 10.0 | 19.0 | 0.00 | 0.00 | 0.00 | 81 | 849.7 |
| 20260507023322 | 44 | 196 | 11.0 | 19.0 | 0.00 | 0.00 | 0.00 | 81 | 849.7 |
| 20260507023121 | 44 | 199 | 9.0 | 16.0 | 0.00 | 0.00 | 0.00 | 81 | 849.7 |
| 20260507022917 | 44 | 201 | 6.0 | 13.0 | 0.00 | 0.00 | 0.00 | 81 | 849.8 |
| 20260507022719 | 44 | 196 | 8.0 | 12.0 | 0.00 | 0.00 | 0.00 | 81 | 849.8 |
| 20260507022518 | 44 | 188 | 8.0 | 12.0 | 0.00 | 0.00 | 0.00 | 81 | 849.8 |
| 20260507022417 | 44 | 198 | 7.0 | 12.0 | 0.00 | 0.00 | 0.00 | 81 | 849.8 |
| 20260507022318 | 44 | 197 | 8.0 | 16.0 | 0.00 | 0.00 | 0.00 | 81 | 849.7 |
| 20260507022118 | 44 | 192 | 10.0 | 16.0 | 0.00 | 0.00 | 0.00 | 81 | 849.7 |
| 20260507021914 | 44 | 180 | 8.0 | 15.0 | 0.00 | 0.00 | 0.00 | 81 | 849.6 |
| 20260507021715 | 44 | 174 | 9.0 | 14.0 | 0.00 | 0.00 | 0.00 | 81 | 849.5 |
| 20260507021515 | 44 | 184 | 10.0 | 15.0 | 0.00 | 0.00 | 0.00 | 81 | 849.5 |
| 20260507021414 | 44 | 182 | 11.0 | 16.0 | 0.00 | 0.00 | 0.00 | 81 | 849.5 |
| 20260507021315 | 44 | 181 | 12.0 | 18.0 | 0.00 | 0.00 | 0.00 | 81 | 849.6 |
| 20260507021115 | 44 | 183 | 10.0 | 18.0 | 0.00 | 0.00 | 0.00 | 81 | 849.7 |
| 20260507020911 | 44 | 185 | 9.0 | 15.0 | 0.00 | 0.00 | 0.00 | 81 | 849.7 |
| 20260507020712 | 44 | 185 | 9.0 | 14.0 | 0.00 | 0.00 | 0.00 | 81 | 849.8 |
| 20260507020512 | 44 | 186 | 9.0 | 14.0 | 0.00 | 0.00 | 0.00 | 81 | 849.7 |
| 20260507020411 | 44 | 186 | 10.0 | 17.0 | 0.00 | 0.00 | 0.00 | 81 | 849.7 |
| 20260507020312 | 44 | 189 | 10.0 | 17.0 | 0.00 | 0.00 | 0.00 | 81 | 849.7 |
| 20260507020112 | 44 | 190 | 7.0 | 13.0 | 0.00 | 0.00 | 0.00 | 81 | 849.7 |
| 20260507015908 | 44 | 180 | 8.0 | 14.0 | 0.00 | 0.00 | 0.00 | 81 | 849.7 |
| 20260507015709 | 44 | 178 | 8.0 | 18.0 | 0.00 | 0.00 | 0.00 | 81 | 849.7 |
| 20260507015509 | 44 | 189 | 10.0 | 19.0 | 0.00 | 0.00 | 0.00 | 81 | 849.7 |
| 20260507015408 | 44 | 193 | 8.0 | 19.0 | 0.00 | 0.00 | 0.00 | 81 | 849.8 |
| 20260507015309 | 44 | 191 | 8.0 | 13.0 | 0.00 | 0.00 | 0.00 | 81 | 849.8 |
| 20260507015109 | 43 | 197 | 7.0 | 12.0 | 0.00 | 0.00 | 0.00 | 81 | 849.9 |
| 20260507014905 | 43 | 202 | 6.0 | 12.0 | 0.00 | 0.00 | 0.00 | 81 | 849.9 |
| 20260507014705 | 43 | 216 | 5.0 | 10.0 | 0.00 | 0.00 | 0.00 | 81 | 849.9 |
| 20260507014505 | 43 | 216 | 5.0 | 10.0 | 0.00 | 0.00 | 0.00 | 81 | 849.8 |
| 20260507014405 | 43 | 210 | 5.0 | 10.0 | 0.00 | 0.00 | 0.00 | 81 | 849.8 |
| 20260507014305 | 43 | 201 | 5.0 | 10.0 | 0.00 | 0.00 | 0.00 | 81 | 849.7 |
| 20260507014105 | 44 | 188 | 7.0 | 13.0 | 0.00 | 0.00 | 0.00 | 81 | 849.6 |
| 20260507013902 | 44 | 183 | 8.0 | 14.0 | 0.00 | 0.00 | 0.00 | 81 | 849.6 |
| 20260507013704 | 44 | 196 | 8.0 | 14.0 | 0.00 | 0.00 | 0.00 | 81 | 849.6 |
| 20260507013503 | 44 | 195 | 8.0 | 18.0 | 0.00 | 0.00 | 0.00 | 81 | 849.5 |
| 20260507013402 | 44 | 191 | 8.0 | 18.0 | 0.00 | 0.00 | 0.00 | 81 | 849.5 |
| 20260507013304 | 44 | 188 | 8.0 | 18.0 | 0.00 | 0.00 | 0.00 | 81 | 849.5 |
| 20260507013103 | 44 | 180 | 7.0 | 12.0 | 0.00 | 0.00 | 0.00 | 81 | 849.4 |
| 20260507012859 | 44 | 183 | 10.0 | 18.0 | 0.00 | 0.00 | 0.00 | 81 | 849.3 |
| 20260507012700 | 44 | 191 | 10.0 | 18.0 | 0.00 | 0.00 | 0.00 | 81 | 849.3 |
| 20260507012500 | 44 | 185 | 9.0 | 14.0 | 0.00 | 0.00 | 0.00 | 81 | 849.3 |
| 20260507012359 | 44 | 188 | 10.0 | 14.0 | 0.00 | 0.00 | 0.00 | 81 | 849.2 |
| 20260507012300 | 44 | 185 | 10.0 | 14.0 | 0.00 | 0.00 | 0.00 | 81 | 849.2 |
| 20260507012110 | 44 | 188 | 9.0 | 15.0 | 0.00 | 0.00 | 0.00 | 81 | 849.2 |
| 20260507011856 | 44 | 190 | 12.0 | 21.0 | 0.00 | 0.00 | 0.00 | 81 | 849.2 |
| 20260507011658 | 44 | 193 | 10.0 | 17.0 | 0.00 | 0.00 | 0.00 | 80 | 849.3 |
| 20260507011457 | 44 | 200 | 9.0 | 18.0 | 0.00 | 0.00 | 0.00 | 80 | 849.3 |
| 20260507011356 | 44 | 204 | 9.0 | 18.0 | 0.00 | 0.00 | 0.00 | 80 | 849.2 |
| 20260507011258 | 44 | 197 | 9.0 | 18.0 | 0.00 | 0.00 | 0.00 | 80 | 849.2 |
| 20260507011058 | 44 | 186 | 10.0 | 23.0 | 0.00 | 0.00 | 0.00 | 80 | 849.2 |
| 20260507010853 | 44 | 190 | 13.0 | 27.0 | 0.00 | 0.00 | 0.00 | 80 | 849.1 |
| 20260507010454 | 44 | 187 | 10.0 | 26.0 | 0.00 | 0.00 | 0.00 | 80 | 849.0 |
| 20260507010353 | 44 | 188 | 12.0 | 26.0 | 0.00 | 0.00 | 0.00 | 80 | 849.0 |
| 20260507010254 | 44 | 185 | 12.0 | 20.0 | 0.00 | 0.00 | 0.00 | 80 | 849.0 |
| 20260507010054 | 44 | 182 | 11.0 | 17.0 | 0.00 | 0.00 | 0.00 | 80 | 849.0 |
| 20260507005838 | 45 | 182 | 12.0 | 18.0 | 0.00 | 0.00 | 0.00 | 80 | 849.0 |
| 20260507005638 | 45 | 181 | 13.0 | 23.0 | 0.00 | 0.00 | 0.00 | 80 | 848.9 |
| 20260507005438 | 45 | 183 | 14.0 | 23.0 | 0.00 | 0.00 | 0.00 | 80 | 848.9 |
| 20260507005338 | 45 | 179 | 13.0 | 20.0 | 0.00 | 0.00 | 0.00 | 80 | 849.0 |
| 20260507005039 | 45 | 187 | 10.0 | 19.0 | 0.00 | 0.00 | 0.00 | 80 | 849.0 |
| 20260507004835 | 45 | 184 | 11.0 | 21.0 | 0.00 | 0.00 | 0.00 | 80 | 848.9 |
| 20260507004635 | 45 | 187 | 10.0 | 14.0 | 0.00 | 0.00 | 0.00 | 80 | 848.9 |
| 20260507004436 | 45 | 181 | 10.0 | 17.0 | 0.00 | 0.00 | 0.00 | 80 | 848.9 |
| 20260507004335 | 45 | 185 | 11.0 | 18.0 | 0.00 | 0.00 | 0.00 | 80 | 848.9 |
| 20260507004235 | 45 | 185 | 12.0 | 20.0 | 0.00 | 0.00 | 0.00 | 80 | 848.9 |
| 20260507004035 | 45 | 184 | 11.0 | 20.0 | 0.00 | 0.00 | 0.00 | 80 | 848.9 |
| 20260507003831 | 45 | 173 | 9.0 | 18.0 | 0.00 | 0.00 | 0.00 | 80 | 848.9 |
| 20260507003632 | 45 | 179 | 11.0 | 18.0 | 0.00 | 0.00 | 0.00 | 80 | 849.0 |
| 20260507003432 | 45 | 176 | 12.0 | 21.0 | 0.00 | 0.00 | 0.00 | 80 | 848.9 |
| 20260507003331 | 45 | 178 | 11.0 | 21.0 | 0.00 | 0.00 | 0.00 | 80 | 849.0 |
| 20260507003231 | 45 | 182 | 11.0 | 21.0 | 0.00 | 0.00 | 0.00 | 80 | 849.0 |
| 20260507003031 | 45 | 183 | 10.0 | 16.0 | 0.00 | 0.00 | 0.00 | 80 | 849.0 |
| 20260507002828 | 45 | 176 | 12.0 | 21.0 | 0.00 | 0.00 | 0.00 | 80 | 849.1 |
| 20260507002630 | 45 | 182 | 11.0 | 22.0 | 0.00 | 0.00 | 0.00 | 80 | 849.0 |
| 20260507002430 | 45 | 176 | 10.0 | 22.0 | 0.00 | 0.00 | 0.00 | 80 | 849.0 |
| 20260507002328 | 45 | 174 | 11.0 | 20.0 | 0.00 | 0.00 | 0.00 | 80 | 849.0 |
| 20260507002229 | 45 | 175 | 12.0 | 20.0 | 0.00 | 0.00 | 0.00 | 80 | 849.0 |
| 20260507002028 | 45 | 181 | 8.0 | 14.0 | 0.00 | 0.00 | 0.00 | 80 | 849.1 |
| 20260507001825 | 45 | 171 | 8.0 | 14.0 | 0.00 | 0.00 | 0.00 | 80 | 849.1 |
| 20260507001626 | 45 | 161 | 8.0 | 15.0 | 0.00 | 0.00 | 0.00 | 80 | 849.1 |
| 20260507001325 | 45 | 178 | 10.0 | 16.0 | 0.00 | 0.00 | 0.00 | 80 | 849.0 |
| 20260507001226 | 45 | 186 | 9.0 | 16.0 | 0.00 | 0.00 | 0.00 | 80 | 849.0 |
| 20260507000822 | 45 | 181 | 13.0 | 22.0 | 0.00 | 0.00 | 0.00 | 80 | 849.0 |
| 20260507000623 | 45 | 182 | 12.0 | 21.0 | 0.00 | 0.00 | 0.00 | 80 | 849.0 |
| 20260507000423 | 45 | 180 | 10.0 | 20.0 | 0.00 | 0.00 | 0.00 | 80 | 849.0 |
| 20260507000322 | 45 | 180 | 12.0 | 23.0 | 0.00 | 0.00 | 0.00 | 80 | 849.0 |
| 20260507000223 | 45 | 180 | 12.0 | 23.0 | 0.00 | 0.00 | 0.00 | 80 | 849.0 |
| 20260507000023 | 45 | 182 | 12.0 | 27.0 | 0.00 | 0.00 | 0.00 | 80 | 849.1 |
| 20260506235819 | 45 | 182 | 14.0 | 27.0 | 0.00 | 0.00 | 0.00 | 80 | 849.1 |
| 20260506235620 | 45 | 186 | 11.0 | 23.0 | 0.00 | 0.00 | 0.00 | 80 | 849.1 |
| 20260506235420 | 45 | 192 | 13.0 | 23.0 | 0.00 | 0.00 | 0.00 | 80 | 849.1 |
| 20260506235319 | 45 | 188 | 14.0 | 20.0 | 0.00 | 0.00 | 0.00 | 80 | 849.1 |
| 20260506235220 | 45 | 185 | 12.0 | 19.0 | 0.00 | 0.00 | 0.00 | 80 | 849.1 |
| 20260506235020 | 45 | 191 | 11.0 | 15.0 | 0.00 | 0.00 | 0.00 | 80 | 849.2 |
| 20260506234816 | 45 | 184 | 11.0 | 15.0 | 0.00 | 0.00 | 0.00 | 80 | 849.2 |
| 20260506234617 | 45 | 191 | 11.0 | 21.0 | 0.00 | 0.00 | 0.00 | 80 | 849.2 |
| 20260506234417 | 45 | 188 | 12.0 | 23.0 | 0.00 | 0.00 | 0.00 | 80 | 849.2 |
| 20260506234316 | 45 | 188 | 12.0 | 23.0 | 0.00 | 0.00 | 0.00 | 80 | 849.3 |
| 20260506234218 | 45 | 185 | 10.0 | 19.0 | 0.00 | 0.00 | 0.00 | 80 | 849.3 |
| 20260506234017 | 45 | 181 | 8.0 | 15.0 | 0.00 | 0.00 | 0.00 | 80 | 849.3 |
| 20260506233813 | 45 | 178 | 10.0 | 20.0 | 0.00 | 0.00 | 0.00 | 80 | 849.3 |
| 20260506233614 | 45 | 186 | 11.0 | 20.0 | 0.00 | 0.00 | 0.00 | 80 | 849.3 |
| 20260506233414 | 45 | 172 | 8.0 | 15.0 | 0.00 | 0.00 | 0.00 | 80 | 849.4 |
| 20260506233313 | 45 | 165 | 9.0 | 15.0 | 0.00 | 0.00 | 0.00 | 79 | 849.4 |
| 20260506233213 | 45 | 170 | 10.0 | 19.0 | 0.00 | 0.00 | 0.00 | 79 | 849.4 |
| 20260506233013 | 45 | 178 | 9.0 | 19.0 | 0.00 | 0.00 | 0.00 | 79 | 849.4 |
| 20260506232810 | 46 | 172 | 7.0 | 11.0 | 0.00 | 0.00 | 0.00 | 79 | 849.4 |
| 20260506232611 | 46 | 173 | 7.0 | 12.0 | 0.00 | 0.00 | 0.00 | 79 | 849.4 |
| 20260506232410 | 46 | 171 | 6.0 | 13.0 | 0.00 | 0.00 | 0.00 | 79 | 849.4 |
| 20260506232309 | 46 | 168 | 6.0 | 13.0 | 0.00 | 0.00 | 0.00 | 79 | 849.4 |
| 20260506232211 | 46 | 167 | 6.0 | 11.0 | 0.00 | 0.00 | 0.00 | 79 | 849.4 |
| 20260506232011 | 46 | 169 | 7.0 | 15.0 | 0.00 | 0.00 | 0.00 | 79 | 849.4 |
| 20260506231806 | 46 | 172 | 9.0 | 15.0 | 0.00 | 0.00 | 0.00 | 79 | 849.4 |
| 20260506231608 | 46 | 178 | 7.0 | 14.0 | 0.00 | 0.00 | 0.00 | 79 | 849.5 |
| 20260506231408 | 46 | 174 | 7.0 | 14.0 | 0.00 | 0.00 | 0.00 | 79 | 849.4 |
| 20260506231306 | 46 | 171 | 7.0 | 12.0 | 0.00 | 0.00 | 0.00 | 79 | 849.4 |
| 20260506231207 | 46 | 174 | 8.0 | 12.0 | 0.00 | 0.00 | 0.00 | 79 | 849.4 |
| 20260506231007 | 46 | 166 | 10.0 | 17.0 | 0.00 | 0.00 | 0.00 | 79 | 849.4 |
| 20260506230803 | 46 | 176 | 10.0 | 17.0 | 0.00 | 0.00 | 0.00 | 79 | 849.4 |
| 20260506230604 | 46 | 184 | 10.0 | 21.0 | 0.00 | 0.00 | 0.00 | 79 | 849.4 |
| 20260506230303 | 46 | 169 | 7.0 | 13.0 | 0.00 | 0.00 | 0.00 | 79 | 849.4 |
| 20260506230205 | 46 | 172 | 10.0 | 15.0 | 0.00 | 0.00 | 0.00 | 78 | 849.4 |
| 20260506230004 | 46 | 174 | 10.0 | 16.0 | 0.00 | 0.00 | 0.00 | 78 | 849.4 |
| 20260506225801 | 46 | 179 | 8.0 | 20.0 | 0.00 | 0.00 | 0.00 | 78 | 849.4 |
| 20260506225602 | 46 | 178 | 8.0 | 20.0 | 0.00 | 0.00 | 0.00 | 78 | 849.4 |
| 20260506225301 | 46 | 181 | 7.0 | 16.0 | 0.00 | 0.00 | 0.00 | 78 | 849.5 |
| 20260506225202 | 46 | 178 | 8.0 | 16.0 | 0.00 | 0.00 | 0.00 | 78 | 849.5 |
| 20260506225002 | 46 | 178 | 7.0 | 17.0 | 0.00 | 0.00 | 0.00 | 78 | 849.5 |
| 20260506224758 | 46 | 175 | 6.0 | 16.0 | 0.00 | 0.00 | 0.00 | 78 | 849.6 |
| 20260506224558 | 47 | 174 | 7.0 | 14.0 | 0.00 | 0.00 | 0.00 | 78 | 849.6 |
| 20260506224359 | 47 | 174 | 6.0 | 11.0 | 0.00 | 0.00 | 0.00 | 78 | 849.7 |
| 20260506224258 | 47 | 170 | 6.0 | 14.0 | 0.00 | 0.00 | 0.00 | 77 | 849.7 |
| 20260506224159 | 47 | 166 | 6.0 | 14.0 | 0.00 | 0.00 | 0.00 | 77 | 849.7 |
| 20260506223958 | 47 | 163 | 7.0 | 13.0 | 0.00 | 0.00 | 0.00 | 77 | 849.6 |
| 20260506223754 | 47 | 164 | 9.0 | 16.0 | 0.00 | 0.00 | 0.00 | 77 | 849.6 |
| 20260506223555 | 47 | 169 | 7.0 | 14.0 | 0.00 | 0.00 | 0.00 | 77 | 849.6 |
| 20260506223254 | 47 | 173 | 8.0 | 12.0 | 0.00 | 0.00 | 0.00 | 77 | 849.6 |
| 20260506223155 | 47 | 173 | 6.0 | 12.0 | 0.00 | 0.00 | 0.00 | 77 | 849.6 |
| 20260506222955 | 47 | 162 | 5.0 | 11.0 | 0.00 | 0.00 | 0.00 | 77 | 849.6 |
| 20260506222751 | 48 | 172 | 4.0 | 10.0 | 0.00 | 0.00 | 0.00 | 77 | 849.6 |
| 20260506222553 | 48 | 181 | 5.0 | 9.0 | 0.00 | 0.00 | 0.00 | 77 | 849.6 |
| 20260506222238 | 48 | 180 | 10.0 | 19.0 | 0.00 | 0.00 | 0.00 | 77 | 849.7 |
| 20260506222139 | 48 | 178 | 9.0 | 19.0 | 0.00 | 0.00 | 0.00 | 77 | 849.7 |
| 20260506221939 | 48 | 170 | 8.0 | 13.0 | 0.00 | 0.00 | 0.00 | 77 | 849.7 |
| 20260506221735 | 48 | 178 | 9.0 | 16.0 | 0.00 | 0.00 | 0.00 | 77 | 849.7 |
| 20260506221536 | 48 | 186 | 7.0 | 16.0 | 0.00 | 0.00 | 0.00 | 77 | 849.7 |
| 20260506221235 | 48 | 177 | 6.0 | 10.0 | 0.00 | 0.00 | 0.00 | 77 | 849.7 |
| 20260506221137 | 48 | 178 | 7.0 | 10.0 | 0.00 | 0.00 | 0.00 | 77 | 849.8 |
| 20260506220936 | 48 | 173 | 6.0 | 11.0 | 0.00 | 0.00 | 0.00 | 77 | 849.7 |
| 20260506220732 | 48 | 176 | 6.0 | 9.0 | 0.00 | 0.00 | 0.00 | 77 | 849.7 |
| 20260506220534 | 47 | 180 | 7.0 | 15.0 | 0.00 | 0.00 | 0.00 | 77 | 849.6 |
| 20260506220334 | 47 | 173 | 8.0 | 15.0 | 0.00 | 0.00 | 0.00 | 77 | 849.6 |
| 20260506220232 | 47 | 168 | 7.0 | 14.0 | 0.00 | 0.00 | 0.00 | 77 | 849.6 |
| 20260506220134 | 47 | 173 | 6.0 | 14.0 | 0.00 | 0.00 | 0.00 | 77 | 849.6 |
| 20260506215934 | 47 | 173 | 6.0 | 9.0 | 0.00 | 0.00 | 0.00 | 77 | 849.6 |
| 20260506215730 | 47 | 172 | 7.0 | 12.0 | 0.00 | 0.00 | 0.00 | 77 | 849.6 |
| 20260506215531 | 47 | 169 | 8.0 | 13.0 | 0.00 | 0.00 | 0.00 | 77 | 849.6 |
| 20260506215331 | 47 | 163 | 7.0 | 13.0 | 0.00 | 0.00 | 0.00 | 77 | 849.6 |
| 20260506215230 | 47 | 165 | 7.0 | 10.0 | 0.00 | 0.00 | 0.00 | 77 | 849.6 |
| 20260506215130 | 47 | 167 | 7.0 | 10.0 | 0.00 | 0.00 | 0.00 | 76 | 849.6 |
| 20260506214931 | 47 | 172 | 7.0 | 11.0 | 0.00 | 0.00 | 0.00 | 76 | 849.5 |
| 20260506214727 | 47 | 169 | 7.0 | 11.0 | 0.00 | 0.00 | 0.00 | 76 | 849.5 |
| 20260506214528 | 47 | 165 | 7.0 | 10.0 | 0.00 | 0.00 | 0.00 | 76 | 849.4 |
| 20260506214328 | 47 | 165 | 7.0 | 13.0 | 0.00 | 0.00 | 0.00 | 76 | 849.4 |
| 20260506214226 | 47 | 163 | 7.0 | 13.0 | 0.00 | 0.00 | 0.00 | 76 | 849.4 |
| 20260506214128 | 47 | 161 | 7.0 | 13.0 | 0.00 | 0.00 | 0.00 | 76 | 849.4 |
| 20260506213928 | 47 | 173 | 8.0 | 16.0 | 0.00 | 0.00 | 0.00 | 76 | 849.3 |
| 20260506213723 | 47 | 183 | 7.0 | 12.0 | 0.00 | 0.00 | 0.00 | 76 | 849.3 |
| 20260506213524 | 47 | 173 | 8.0 | 13.0 | 0.00 | 0.00 | 0.00 | 76 | 849.4 |
| 20260506213324 | 47 | 172 | 8.0 | 13.0 | 0.00 | 0.00 | 0.00 | 76 | 849.4 |
| 20260506213223 | 47 | 170 | 8.0 | 13.0 | 0.00 | 0.00 | 0.00 | 76 | 849.5 |
| 20260506213124 | 47 | 170 | 9.0 | 15.0 | 0.00 | 0.00 | 0.00 | 76 | 849.5 |
| 20260506212923 | 47 | 173 | 8.0 | 15.0 | 0.00 | 0.00 | 0.00 | 76 | 849.7 |
| 20260506212720 | 47 | 172 | 7.0 | 11.0 | 0.00 | 0.00 | 0.00 | 76 | 849.8 |
| 20260506212522 | 47 | 181 | 10.0 | 22.0 | 0.00 | 0.00 | 0.00 | 76 | 849.8 |
| 20260506212321 | 47 | 178 | 11.0 | 26.0 | 0.00 | 0.00 | 0.00 | 76 | 849.8 |
| 20260506212220 | 47 | 169 | 10.0 | 26.0 | 0.00 | 0.00 | 0.00 | 76 | 849.8 |
| 20260506212121 | 47 | 168 | 8.0 | 18.0 | 0.00 | 0.00 | 0.00 | 76 | 849.8 |
| 20260506211921 | 47 | 167 | 9.0 | 19.0 | 0.00 | 0.00 | 0.00 | 76 | 849.8 |
| 20260506211717 | 47 | 169 | 10.0 | 18.0 | 0.00 | 0.00 | 0.00 | 76 | 849.8 |
| 20260506211519 | 47 | 182 | 10.0 | 18.0 | 0.00 | 0.00 | 0.00 | 76 | 849.7 |
| 20260506211319 | 47 | 172 | 9.0 | 16.0 | 0.00 | 0.00 | 0.00 | 76 | 849.7 |
| 20260506211217 | 47 | 173 | 9.0 | 16.0 | 0.00 | 0.00 | 0.00 | 76 | 849.7 |
| 20260506211118 | 47 | 174 | 11.0 | 19.0 | 0.00 | 0.00 | 0.00 | 76 | 849.7 |
| 20260506210918 | 47 | 169 | 10.0 | 19.0 | 0.00 | 0.00 | 0.00 | 75 | 849.7 |
| 20260506210715 | 47 | 173 | 10.0 | 16.0 | 0.00 | 0.00 | 0.00 | 75 | 849.7 |
| 20260506210515 | 47 | 174 | 11.0 | 16.0 | 0.00 | 0.00 | 0.00 | 75 | 849.7 |
| 20260506210315 | 47 | 173 | 9.0 | 16.0 | 0.00 | 0.00 | 0.00 | 75 | 849.6 |
| 20260506210214 | 47 | 170 | 9.0 | 12.0 | 0.00 | 0.00 | 0.00 | 75 | 849.6 |
| 20260506205915 | 47 | 175 | 9.0 | 18.0 | 0.00 | 0.00 | 0.00 | 75 | 849.7 |
| 20260506205711 | 47 | 172 | 10.0 | 22.0 | 0.00 | 0.00 | 0.00 | 75 | 849.7 |
| 20260506205211 | 47 | 174 | 10.0 | 16.0 | 0.00 | 0.00 | 0.00 | 75 | 849.7 |
| 20260506205112 | 47 | 172 | 11.0 | 21.0 | 0.00 | 0.00 | 0.00 | 75 | 849.7 |
| 20260506204912 | 47 | 173 | 10.0 | 21.0 | 0.00 | 0.00 | 0.00 | 75 | 849.6 |
| 20260506204708 | 47 | 168 | 10.0 | 15.0 | 0.00 | 0.00 | 0.00 | 75 | 849.6 |
| 20260506204509 | 47 | 161 | 9.0 | 15.0 | 0.00 | 0.00 | 0.00 | 75 | 849.6 |
| 20260506204309 | 47 | 176 | 10.0 | 15.0 | 0.00 | 0.00 | 0.00 | 75 | 849.7 |
| 20260506204208 | 47 | 176 | 9.0 | 15.0 | 0.00 | 0.00 | 0.00 | 75 | 849.7 |
| 20260506204109 | 47 | 174 | 9.0 | 13.0 | 0.00 | 0.00 | 0.00 | 75 | 849.7 |
| 20260506203909 | 47 | 173 | 9.0 | 16.0 | 0.00 | 0.00 | 0.00 | 75 | 849.8 |
| 20260506203705 | 47 | 176 | 10.0 | 16.0 | 0.00 | 0.00 | 0.00 | 75 | 849.8 |
| 20260506203506 | 47 | 180 | 8.0 | 13.0 | 0.00 | 0.00 | 0.00 | 74 | 849.8 |
| 20260506203306 | 47 | 165 | 10.0 | 16.0 | 0.00 | 0.00 | 0.00 | 74 | 849.8 |
| 20260506203205 | 47 | 159 | 10.0 | 18.0 | 0.00 | 0.00 | 0.00 | 74 | 849.8 |
| 20260506203108 | 47 | 158 | 10.0 | 18.0 | 0.00 | 0.00 | 0.00 | 74 | 849.9 |
| 20260506202906 | 47 | 166 | 8.0 | 12.0 | 0.00 | 0.00 | 0.00 | 74 | 849.8 |
| 20260506202702 | 47 | 169 | 10.0 | 19.0 | 0.00 | 0.00 | 0.00 | 74 | 849.8 |
| 20260506202503 | 48 | 167 | 9.0 | 14.0 | 0.00 | 0.00 | 0.00 | 74 | 849.8 |
| 20260506202203 | 48 | 169 | 10.0 | 16.0 | 0.00 | 0.00 | 0.00 | 74 | 849.7 |
| 20260506202102 | 48 | 176 | 9.0 | 16.0 | 0.00 | 0.00 | 0.00 | 74 | 849.7 |
| 20260506201903 | 48 | 173 | 10.0 | 16.0 | 0.00 | 0.00 | 0.00 | 74 | 849.7 |
| 20260506201659 | 48 | 167 | 11.0 | 28.0 | 0.00 | 0.00 | 0.00 | 74 | 849.7 |
| 20260506201501 | 48 | 160 | 11.0 | 28.0 | 0.00 | 0.00 | 0.00 | 74 | 849.7 |
| 20260506201301 | 48 | 162 | 12.0 | 18.0 | 0.00 | 0.00 | 0.00 | 74 | 849.7 |
| 20260506201159 | 48 | 163 | 11.0 | 17.0 | 0.00 | 0.00 | 0.00 | 74 | 849.7 |
| 20260506201100 | 48 | 163 | 10.0 | 18.0 | 0.00 | 0.00 | 0.00 | 74 | 849.7 |
| 20260506200859 | 48 | 162 | 12.0 | 18.0 | 0.00 | 0.00 | 0.00 | 74 | 849.8 |
| 20260506200656 | 48 | 171 | 9.0 | 16.0 | 0.00 | 0.00 | 0.00 | 74 | 849.8 |
| 20260506200456 | 48 | 169 | 10.0 | 17.0 | 0.00 | 0.00 | 0.00 | 73 | 849.7 |
| 20260506200256 | 48 | 179 | 10.0 | 16.0 | 0.00 | 0.00 | 0.00 | 73 | 849.8 |
| 20260506200156 | 48 | 173 | 10.0 | 16.0 | 0.00 | 0.00 | 0.00 | 73 | 849.8 |
| 20260506200056 | 48 | 176 | 9.0 | 16.0 | 0.00 | 0.00 | 0.00 | 73 | 849.8 |
| 20260506195857 | 48 | 173 | 8.0 | 15.0 | 0.00 | 0.00 | 0.00 | 73 | 849.8 |
| 20260506195653 | 48 | 178 | 10.0 | 18.0 | 0.00 | 0.00 | 0.00 | 73 | 849.8 |
| 20260506195454 | 48 | 175 | 11.0 | 19.0 | 0.00 | 0.00 | 0.00 | 73 | 849.8 |
| 20260506195254 | 48 | 171 | 10.0 | 19.0 | 0.00 | 0.00 | 0.00 | 73 | 849.8 |
| 20260506195153 | 48 | 169 | 10.0 | 15.0 | 0.00 | 0.00 | 0.00 | 73 | 849.8 |
| 20260506195054 | 48 | 171 | 10.0 | 16.0 | 0.00 | 0.00 | 0.00 | 73 | 849.7 |
| 20260506194853 | 48 | 179 | 12.0 | 20.0 | 0.00 | 0.00 | 0.00 | 73 | 849.7 |
| 20260506194637 | 48 | 169 | 10.0 | 15.0 | 0.00 | 0.00 | 0.00 | 73 | 849.7 |
| 20260506194439 | 48 | 154 | 9.0 | 15.0 | 0.00 | 0.00 | 0.00 | 73 | 849.7 |
| 20260506194239 | 48 | 163 | 9.0 | 15.0 | 0.00 | 0.00 | 0.00 | 73 | 849.8 |
| 20260506194137 | 48 | 170 | 9.0 | 15.0 | 0.00 | 0.00 | 0.00 | 72 | 849.8 |
| 20260506194039 | 48 | 173 | 10.0 | 19.0 | 0.00 | 0.00 | 0.00 | 72 | 849.8 |
| 20260506193839 | 48 | 170 | 10.0 | 19.0 | 0.00 | 0.00 | 0.00 | 72 | 849.8 |
| 20260506193634 | 48 | 162 | 10.0 | 16.0 | 0.00 | 0.00 | 0.00 | 72 | 849.8 |
| 20260506193435 | 48 | 169 | 10.0 | 13.0 | 0.00 | 0.00 | 0.00 | 72 | 849.8 |
| 20260506193234 | 48 | 177 | 8.0 | 12.0 | 0.00 | 0.00 | 0.00 | 72 | 849.8 |
| 20260506193134 | 48 | 180 | 7.0 | 12.0 | 0.00 | 0.00 | 0.00 | 72 | 849.8 |
| 20260506193034 | 48 | 179 | 8.0 | 13.0 | 0.00 | 0.00 | 0.00 | 72 | 849.9 |
| 20260506192834 | 48 | 172 | 8.0 | 13.0 | 0.00 | 0.00 | 0.00 | 72 | 849.9 |
| 20260506192631 | 48 | 169 | 8.0 | 14.0 | 0.00 | 0.00 | 0.00 | 72 | 849.9 |
| 20260506192432 | 48 | 168 | 9.0 | 17.0 | 0.00 | 0.00 | 0.00 | 72 | 849.8 |
| 20260506192232 | 49 | 167 | 11.0 | 16.0 | 0.00 | 0.00 | 0.00 | 72 | 849.8 |
| 20260506192131 | 49 | 167 | 10.0 | 16.0 | 0.00 | 0.00 | 0.00 | 72 | 849.8 |
| 20260506192032 | 49 | 165 | 8.0 | 12.0 | 0.00 | 0.00 | 0.00 | 72 | 849.8 |
| 20260506191628 | 49 | 169 | 8.0 | 14.0 | 0.00 | 0.00 | 0.00 | 72 | 849.8 |
| 20260506191429 | 49 | 173 | 8.0 | 13.0 | 0.00 | 0.00 | 0.00 | 72 | 849.8 |
| 20260506191228 | 49 | 174 | 8.0 | 13.0 | 0.00 | 0.00 | 0.00 | 72 | 849.8 |
| 20260506191128 | 49 | 175 | 8.0 | 13.0 | 0.00 | 0.00 | 0.00 | 72 | 849.8 |
| 20260506191028 | 49 | 175 | 9.0 | 13.0 | 0.00 | 0.00 | 0.00 | 71 | 849.7 |
| 20260506190625 | 49 | 175 | 9.0 | 13.0 | 0.00 | 0.00 | 0.00 | 71 | 849.8 |
| 20260506190426 | 49 | 176 | 8.0 | 11.0 | 0.00 | 0.00 | 0.00 | 71 | 849.8 |
| 20260506190225 | 49 | 163 | 9.0 | 18.0 | 0.00 | 0.00 | 0.00 | 71 | 849.8 |
| 20260506190124 | 49 | 164 | 8.0 | 18.0 | 0.00 | 0.00 | 0.00 | 71 | 849.8 |
| 20260506190026 | 49 | 164 | 8.0 | 18.0 | 0.00 | 0.00 | 0.00 | 71 | 849.8 |
| 20260506185621 | 49 | 167 | 8.0 | 13.0 | 0.00 | 0.00 | 0.00 | 71 | 849.8 |
| 20260506185423 | 49 | 170 | 8.0 | 13.0 | 0.00 | 0.00 | 0.00 | 71 | 849.8 |
| 20260506185223 | 49 | 165 | 9.0 | 15.0 | 0.00 | 0.00 | 0.00 | 71 | 849.8 |
| 20260506185121 | 49 | 161 | 8.0 | 15.0 | 0.00 | 0.00 | 0.00 | 71 | 849.7 |
| 20260506185018 | 49 | 164 | 8.0 | 14.0 | 0.00 | 0.00 | 0.00 | 71 | 849.7 |
| 20260506184819 | 49 | 173 | 8.0 | 14.0 | 0.00 | 0.00 | 0.00 | 71 | 849.7 |
| 20260506184615 | 49 | 177 | 7.0 | 13.0 | 0.00 | 0.00 | 0.00 | 71 | 849.8 |
| 20260506184415 | 49 | 173 | 8.0 | 13.0 | 0.00 | 0.00 | 0.00 | 71 | 849.8 |
| 20260506184215 | 49 | 172 | 7.0 | 12.0 | 0.00 | 0.00 | 0.00 | 71 | 849.9 |
| 20260506184115 | 49 | 171 | 7.0 | 10.0 | 0.00 | 0.00 | 0.00 | 71 | 849.9 |
| 20260506184015 | 49 | 172 | 8.0 | 14.0 | 0.00 | 0.00 | 0.00 | 71 | 849.9 |
| 20260506183815 | 49 | 174 | 8.0 | 14.0 | 0.00 | 0.00 | 0.00 | 71 | 849.9 |
| 20260506183612 | 49 | 177 | 8.0 | 14.0 | 0.00 | 0.00 | 0.00 | 71 | 849.9 |
| 20260506183413 | 49 | 179 | 8.0 | 14.0 | 0.00 | 0.00 | 0.00 | 71 | 849.8 |
| 20260506183213 | 49 | 173 | 8.0 | 14.0 | 0.00 | 0.00 | 0.00 | 71 | 849.9 |
| 20260506183112 | 49 | 169 | 8.0 | 13.0 | 0.00 | 0.00 | 0.00 | 71 | 849.9 |
| 20260506183013 | 49 | 171 | 7.0 | 11.0 | 0.00 | 0.00 | 0.00 | 70 | 849.8 |
| 20260506182813 | 49 | 172 | 6.0 | 10.0 | 0.00 | 0.00 | 0.00 | 70 | 849.8 |
| 20260506182609 | 49 | 168 | 7.0 | 14.0 | 0.00 | 0.00 | 0.00 | 70 | 849.8 |
| 20260506182410 | 49 | 170 | 7.0 | 14.0 | 0.00 | 0.00 | 0.00 | 70 | 849.8 |
| 20260506182210 | 49 | 172 | 7.0 | 12.0 | 0.00 | 0.00 | 0.00 | 70 | 849.8 |
| 20260506182109 | 49 | 172 | 7.0 | 12.0 | 0.00 | 0.00 | 0.00 | 70 | 849.8 |
| 20260506182010 | 49 | 176 | 8.0 | 16.0 | 0.00 | 0.00 | 0.00 | 70 | 849.8 |
| 20260506181810 | 49 | 172 | 10.0 | 16.0 | 0.00 | 0.00 | 0.00 | 70 | 849.8 |
| 20260506181606 | 49 | 173 | 8.0 | 14.0 | 0.00 | 0.00 | 0.00 | 70 | 849.8 |
| 20260506181408 | 49 | 175 | 7.0 | 16.0 | 0.00 | 0.00 | 0.00 | 70 | 849.9 |
| 20260506181208 | 49 | 170 | 7.0 | 16.0 | 0.00 | 0.00 | 0.00 | 69 | 849.9 |
| 20260506181106 | 49 | 170 | 8.0 | 16.0 | 0.00 | 0.00 | 0.00 | 69 | 849.9 |
| 20260506181007 | 49 | 166 | 8.0 | 16.0 | 0.00 | 0.00 | 0.00 | 69 | 849.9 |
| 20260506180807 | 50 | 164 | 8.0 | 12.0 | 0.00 | 0.00 | 0.00 | 69 | 849.9 |
| 20260506180603 | 50 | 178 | 7.0 | 9.0 | 0.00 | 0.00 | 0.00 | 69 | 849.9 |
| 20260506180405 | 50 | 181 | 7.0 | 10.0 | 0.00 | 0.00 | 0.00 | 69 | 849.9 |
| 20260506180204 | 50 | 170 | 8.0 | 12.0 | 0.00 | 0.00 | 0.00 | 69 | 849.8 |
| 20260506180103 | 50 | 165 | 8.0 | 13.0 | 0.00 | 0.00 | 0.00 | 69 | 849.8 |
| 20260506175600 | 50 | 170 | 6.0 | 10.0 | 0.00 | 0.00 | 0.00 | 68 | 849.9 |
| 20260506175403 | 50 | 171 | 8.0 | 14.0 | 0.00 | 0.00 | 0.00 | 68 | 849.9 |
| 20260506175100 | 50 | 171 | 8.0 | 14.0 | 0.00 | 0.00 | 0.00 | 68 | 849.9 |
| 20260506175003 | 50 | 168 | 7.0 | 14.0 | 0.00 | 0.00 | 0.00 | 68 | 849.9 |
| 20260506174557 | 50 | 164 | 7.0 | 12.0 | 0.00 | 0.00 | 0.00 | 68 | 850.0 |
| 20260506174358 | 50 | 172 | 7.0 | 11.0 | 0.00 | 0.00 | 0.00 | 68 | 850.0 |
| 20260506174158 | 50 | 178 | 8.0 | 14.0 | 0.00 | 0.00 | 0.00 | 68 | 850.0 |
| 20260506174057 | 50 | 174 | 8.0 | 14.0 | 0.00 | 0.00 | 0.00 | 68 | 850.0 |
| 20260506173958 | 50 | 175 | 8.0 | 14.0 | 0.00 | 0.00 | 0.00 | 68 | 850.0 |
| 20260506173554 | 50 | 173 | 6.0 | 8.0 | 0.00 | 0.00 | 0.00 | 68 | 850.1 |
| 20260506173354 | 50 | 174 | 7.0 | 10.0 | 0.00 | 0.00 | 0.00 | 68 | 850.1 |
| 20260506173154 | 50 | 173 | 7.0 | 12.0 | 0.00 | 0.00 | 0.00 | 68 | 850.0 |
| 20260506173054 | 50 | 170 | 8.0 | 12.0 | 0.00 | 0.00 | 0.00 | 68 | 850.0 |
| 20260506172954 | 50 | 169 | 7.0 | 12.0 | 0.00 | 0.00 | 0.00 | 67 | 850.1 |
| 20260506172754 | 51 | 168 | 6.0 | 15.0 | 0.00 | 0.00 | 0.00 | 67 | 850.1 |
| 20260506172551 | 51 | 171 | 6.0 | 11.0 | 0.00 | 0.00 | 0.00 | 67 | 850.1 |
| 20260506172352 | 51 | 176 | 6.0 | 10.0 | 0.00 | 0.00 | 0.00 | 67 | 850.1 |
| 20260506172152 | 51 | 176 | 6.0 | 10.0 | 0.00 | 0.00 | 0.00 | 67 | 850.1 |
| 20260506172051 | 51 | 179 | 6.0 | 10.0 | 0.00 | 0.00 | 0.00 | 67 | 850.1 |
| 20260506171952 | 51 | 185 | 6.0 | 10.0 | 0.00 | 0.00 | 0.00 | 67 | 850.1 |
| 20260506171752 | 51 | 183 | 6.0 | 11.0 | 0.00 | 0.00 | 0.00 | 67 | 850.1 |
| 20260506171548 | 51 | 168 | 6.0 | 11.0 | 0.00 | 0.00 | 0.00 | 67 | 850.1 |
| 20260506171350 | 51 | 170 | 6.0 | 8.0 | 0.00 | 0.00 | 0.00 | 67 | 850.1 |
| 20260506171150 | 51 | 173 | 6.0 | 8.0 | 0.00 | 0.00 | 0.00 | 67 | 850.1 |
| 20260506171034 | 51 | 171 | 7.0 | 15.0 | 0.00 | 0.00 | 0.00 | 66 | 850.1 |
| 20260506170934 | 51 | 168 | 8.0 | 15.0 | 0.00 | 0.00 | 0.00 | 66 | 850.1 |
| 20260506170734 | 51 | 173 | 8.0 | 14.0 | 0.00 | 0.00 | 0.00 | 66 | 850.1 |
| 20260506170531 | 52 | 170 | 7.0 | 10.0 | 0.00 | 0.00 | 0.00 | 66 | 850.1 |
| 20260506170332 | 52 | 173 | 7.0 | 12.0 | 0.00 | 0.00 | 0.00 | 66 | 850.1 |
| 20260506170132 | 52 | 179 | 7.0 | 10.0 | 0.00 | 0.00 | 0.00 | 66 | 850.0 |
| 20260506170031 | 52 | 180 | 7.0 | 10.0 | 0.00 | 0.00 | 0.00 | 66 | 850.0 |
| 20260506165933 | 52 | 178 | 7.0 | 12.0 | 0.00 | 0.00 | 0.00 | 66 | 850.0 |
| 20260506165731 | 52 | 176 | 7.0 | 12.0 | 0.00 | 0.00 | 0.00 | 66 | 850.0 |
| 20260506165527 | 53 | 172 | 5.0 | 11.0 | 0.00 | 0.00 | 0.00 | 66 | 850.0 |
| 20260506165328 | 53 | 165 | 5.0 | 10.0 | 0.00 | 0.00 | 0.00 | 66 | 850.1 |
| 20260506165128 | 53 | 173 | 4.0 | 10.0 | 0.00 | 0.00 | 0.00 | 66 | 850.1 |
| 20260506165027 | 53 | 183 | 4.0 | 9.0 | 0.00 | 0.00 | 0.00 | 66 | 850.1 |
| 20260506164928 | 53 | 183 | 4.0 | 9.0 | 0.00 | 0.00 | 0.00 | 66 | 850.1 |
| 20260506164728 | 53 | 184 | 5.0 | 9.0 | 0.00 | 0.00 | 0.00 | 66 | 850.2 |
| 20260506164524 | 53 | 178 | 5.0 | 8.0 | 0.00 | 0.00 | 0.00 | 65 | 850.2 |
| 20260506164326 | 53 | 176 | 4.0 | 7.0 | 0.00 | 0.00 | 0.00 | 65 | 850.2 |
| 20260506164127 | 53 | 174 | 6.0 | 11.0 | 0.00 | 0.00 | 0.00 | 65 | 850.1 |
| 20260506164024 | 53 | 171 | 6.0 | 11.0 | 0.00 | 0.00 | 0.00 | 65 | 850.1 |
| 20260506163926 | 53 | 178 | 6.0 | 11.0 | 0.00 | 0.00 | 0.00 | 65 | 850.1 |
| 20260506163725 | 53 | 177 | 5.0 | 10.0 | 0.00 | 0.00 | 0.00 | 65 | 850.2 |
| 20260506163521 | 53 | 177 | 8.0 | 17.0 | 0.00 | 0.00 | 0.00 | 65 | 850.2 |
| 20260506163322 | 53 | 180 | 8.0 | 12.0 | 0.00 | 0.00 | 0.00 | 65 | 850.2 |
| 20260506163123 | 53 | 173 | 6.0 | 11.0 | 0.00 | 0.00 | 0.00 | 65 | 850.2 |
| 20260506163021 | 54 | 176 | 6.0 | 11.0 | 0.00 | 0.00 | 0.00 | 65 | 850.2 |
| 20260506162921 | 54 | 178 | 8.0 | 13.0 | 0.00 | 0.00 | 0.00 | 65 | 850.2 |
| 20260506162721 | 54 | 182 | 9.0 | 13.0 | 0.00 | 0.00 | 0.00 | 65 | 850.2 |
| 20260506162523 | 55 | 182 | 6.0 | 11.0 | 0.00 | 0.00 | 0.00 | 65 | 850.2 |
| 20260506162518 | 54 | 185 | 8.0 | 14.0 | 0.00 | 0.00 | 0.00 | 65 | 850.2 |
| 20260506162319 | 54 | 183 | 8.0 | 17.0 | 0.00 | 0.00 | 0.00 | 65 | 850.2 |
| 20260506162119 | 55 | 184 | 5.0 | 8.0 | 0.00 | 0.00 | 0.00 | 65 | 850.2 |
| 20260506162017 | 55 | 182 | 6.0 | 11.0 | 0.00 | 0.00 | 0.00 | 65 | 850.2 |
| 20260506161920 | 55 | 179 | 6.0 | 11.0 | 0.00 | 0.00 | 0.00 | 65 | 850.3 |
| 20260506161718 | 55 | 176 | 6.0 | 12.0 | 0.00 | 0.00 | 0.00 | 65 | 850.2 |
| 20260506161515 | 55 | 182 | 7.0 | 13.0 | 0.00 | 0.00 | 0.00 | 65 | 850.3 |
| 20260506161115 | 55 | 176 | 6.0 | 10.0 | 0.00 | 0.00 | 0.00 | 65 | 850.3 |
| 20260506161015 | 55 | 182 | 6.0 | 10.0 | 0.00 | 0.00 | 0.00 | 64 | 850.3 |
| 20260506160915 | 55 | 178 | 7.0 | 13.0 | 0.00 | 0.00 | 0.00 | 65 | 850.4 |
| 20260506160715 | 55 | 178 | 6.0 | 13.0 | 0.00 | 0.00 | 0.00 | 64 | 850.4 |
| 20260506160512 | 55 | 178 | 5.0 | 9.0 | 0.00 | 0.00 | 0.00 | 64 | 850.4 |
| 20260506160113 | 55 | 179 | 7.0 | 13.0 | 0.00 | 0.00 | 0.00 | 64 | 850.3 |
| 20260506160012 | 55 | 185 | 8.0 | 13.0 | 0.00 | 0.00 | 0.00 | 64 | 850.3 |
| 20260506155913 | 55 | 185 | 9.0 | 14.0 | 0.00 | 0.00 | 0.00 | 64 | 850.3 |
| 20260506155713 | 55 | 182 | 8.0 | 14.0 | 0.00 | 0.00 | 0.00 | 64 | 850.3 |
| 20260506155509 | 55 | 179 | 8.0 | 12.0 | 0.00 | 0.00 | 0.00 | 64 | 850.4 |
| 20260506155310 | 55 | 176 | 7.0 | 12.0 | 0.00 | 0.00 | 0.00 | 64 | 850.4 |
| 20260506155110 | 55 | 183 | 6.0 | 10.0 | 0.00 | 0.00 | 0.00 | 64 | 850.4 |
| 20260506155008 | 55 | 184 | 6.0 | 13.0 | 0.00 | 0.00 | 0.00 | 64 | 850.4 |
| 20260506154910 | 55 | 178 | 6.0 | 13.0 | 0.00 | 0.00 | 0.00 | 64 | 850.4 |
| 20260506154709 | 55 | 175 | 6.0 | 9.0 | 0.00 | 0.00 | 0.00 | 64 | 850.4 |
| 20260506154505 | 55 | 176 | 7.0 | 10.0 | 0.00 | 0.00 | 0.00 | 64 | 850.4 |
| 20260506154106 | 54 | 175 | 5.0 | 11.0 | 0.00 | 0.00 | 0.00 | 64 | 850.5 |
| 20260506154005 | 54 | 175 | 6.0 | 11.0 | 0.00 | 0.00 | 0.00 | 64 | 850.5 |
| 20260506153906 | 54 | 177 | 7.0 | 14.0 | 0.00 | 0.00 | 0.00 | 64 | 850.6 |
| 20260506153706 | 54 | 178 | 7.0 | 14.0 | 0.00 | 0.00 | 0.00 | 64 | 850.6 |
| 20260506153502 | 54 | 178 | 7.0 | 11.0 | 0.00 | 0.00 | 0.00 | 64 | 850.6 |
| 20260506153304 | 54 | 176 | 6.0 | 10.0 | 0.00 | 0.00 | 0.00 | 64 | 850.6 |
| 20260506153104 | 55 | 175 | 6.0 | 10.0 | 0.00 | 0.00 | 0.00 | 63 | 850.6 |
| 20260506153002 | 55 | 169 | 6.0 | 10.0 | 0.00 | 0.00 | 0.00 | 63 | 850.5 |
| 20260506152903 | 55 | 170 | 5.0 | 8.0 | 0.00 | 0.00 | 0.00 | 63 | 850.5 |
| 20260506152702 | 55 | 176 | 5.0 | 8.0 | 0.00 | 0.00 | 0.00 | 63 | 850.5 |
| 20260506152459 | 55 | 177 | 5.0 | 9.0 | 0.00 | 0.00 | 0.00 | 63 | 850.5 |
| 20260506152259 | 55 | 171 | 5.0 | 6.0 | 0.00 | 0.00 | 0.00 | 63 | 850.5 |
| 20260506152059 | 55 | 175 | 5.0 | 9.0 | 0.00 | 0.00 | 0.00 | 63 | 850.5 |
| 20260506151958 | 55 | 178 | 6.0 | 9.0 | 0.00 | 0.00 | 0.00 | 63 | 850.5 |
| 20260506151859 | 55 | 176 | 6.0 | 9.0 | 0.00 | 0.00 | 0.00 | 63 | 850.6 |
| 20260506151700 | 55 | 180 | 6.0 | 13.0 | 0.00 | 0.00 | 0.00 | 63 | 850.6 |
| 20260506151456 | 55 | 175 | 8.0 | 13.0 | 0.00 | 0.00 | 0.00 | 63 | 850.6 |
| 20260506151256 | 55 | 178 | 7.0 | 11.0 | 0.00 | 0.00 | 0.00 | 63 | 850.7 |
| 20260506151056 | 55 | 178 | 5.0 | 11.0 | 0.00 | 0.00 | 0.00 | 63 | 850.7 |
| 20260506150956 | 55 | 178 | 4.0 | 9.0 | 0.00 | 0.00 | 0.00 | 63 | 850.7 |
| 20260506150856 | 55 | 180 | 5.0 | 7.0 | 0.00 | 0.00 | 0.00 | 63 | 850.7 |
| 20260506150452 | 55 | 174 | 4.0 | 7.0 | 0.00 | 0.00 | 0.00 | 63 | 850.7 |
| 20260506150259 | 55 | 174 | 3.0 | 6.0 | 0.00 | 0.00 | 0.00 | 63 | 850.7 |
| 20260506150053 | 56 | 173 | 4.0 | 9.0 | 0.00 | 0.00 | 0.00 | 63 | 850.7 |
| 20260506145952 | 56 | 176 | 4.0 | 9.0 | 0.00 | 0.00 | 0.00 | 63 | 850.7 |
| 20260506145852 | 56 | 173 | 4.0 | 9.0 | 0.00 | 0.00 | 0.00 | 63 | 850.7 |
| 20260506145652 | 56 | 168 | 3.0 | 5.0 | 0.00 | 0.00 | 0.00 | 63 | 850.7 |
| 20260506145449 | 56 | 175 | 5.0 | 10.0 | 0.00 | 0.00 | 0.00 | 63 | 850.7 |
| 20260506145251 | 57 | 191 | 6.0 | 11.0 | 0.00 | 0.00 | 0.00 | 63 | 850.6 |
| 20260506145050 | 56 | 194 | 7.0 | 12.0 | 0.00 | 0.00 | 0.00 | 63 | 850.6 |
| 20260506144949 | 56 | 190 | 7.0 | 12.0 | 0.00 | 0.00 | 0.00 | 63 | 850.6 |
| 20260506144850 | 56 | 189 | 6.0 | 12.0 | 0.00 | 0.00 | 0.00 | 63 | 850.6 |
| 20260506144650 | 56 | 183 | 6.0 | 11.0 | 0.00 | 0.00 | 0.00 | 63 | 850.7 |
| 20260506144446 | 56 | 189 | 6.0 | 11.0 | 0.00 | 0.00 | 0.00 | 63 | 850.7 |
| 20260506144246 | 56 | 190 | 5.0 | 9.0 | 0.00 | 0.00 | 0.00 | 63 | 850.8 |
| 20260506144047 | 56 | 185 | 5.0 | 8.0 | 0.00 | 0.00 | 0.00 | 63 | 850.8 |
| 20260506143945 | 56 | 185 | 5.0 | 11.0 | 0.00 | 0.00 | 0.00 | 63 | 850.8 |
| 20260506143845 | 56 | 184 | 5.0 | 11.0 | 0.00 | 0.00 | 0.00 | 63 | 850.8 |
| 20260506143646 | 56 | 184 | 4.0 | 8.0 | 0.00 | 0.00 | 0.00 | 63 | 850.8 |
| 20260506143429 | 56 | 191 | 5.0 | 10.0 | 0.00 | 0.00 | 0.00 | 63 | 850.8 |
| 20260506143231 | 56 | 186 | 4.0 | 10.0 | 0.00 | 0.00 | 0.00 | 62 | 850.8 |
| 20260506143031 | 56 | 174 | 4.0 | 7.0 | 0.00 | 0.00 | 0.00 | 62 | 850.8 |
| 20260506142929 | 56 | 179 | 5.0 | 8.0 | 0.00 | 0.00 | 0.00 | 62 | 850.8 |
| 20260506142830 | 56 | 182 | 5.0 | 9.0 | 0.00 | 0.00 | 0.00 | 62 | 850.8 |
| 20260506142629 | 56 | 172 | 4.0 | 9.0 | 0.00 | 0.00 | 0.00 | 62 | 850.8 |
| 20260506142426 | 56 | 175 | 5.0 | 10.0 | 0.00 | 0.00 | 0.00 | 62 | 850.8 |
| 20260506142227 | 56 | 182 | 4.0 | 9.0 | 0.00 | 0.00 | 0.00 | 62 | 850.9 |
| 20260506142027 | 56 | 179 | 7.0 | 11.0 | 0.00 | 0.00 | 0.00 | 62 | 850.8 |
| 20260506141926 | 56 | 182 | 7.0 | 11.0 | 0.00 | 0.00 | 0.00 | 62 | 850.8 |
| 20260506141827 | 56 | 182 | 7.0 | 12.0 | 0.00 | 0.00 | 0.00 | 62 | 850.8 |
| 20260506141627 | 57 | 175 | 6.0 | 12.0 | 0.00 | 0.00 | 0.00 | 62 | 850.8 |
| 20260506141423 | 57 | 173 | 4.0 | 9.0 | 0.00 | 0.00 | 0.00 | 62 | 850.8 |
| 20260506141225 | 57 | 171 | 4.0 | 7.0 | 0.00 | 0.00 | 0.00 | 62 | 850.9 |
| 20260506141025 | 57 | 179 | 6.0 | 12.0 | 0.00 | 0.00 | 0.00 | 62 | 850.8 |
| 20260506140923 | 58 | 176 | 7.0 | 12.0 | 0.00 | 0.00 | 0.00 | 62 | 850.8 |
| 20260506140825 | 58 | 176 | 6.0 | 12.0 | 0.00 | 0.00 | 0.00 | 62 | 850.8 |
| 20260506140624 | 58 | 183 | 4.0 | 8.0 | 0.00 | 0.00 | 0.00 | 62 | 850.8 |
| 20260506140420 | 58 | 183 | 4.0 | 11.0 | 0.00 | 0.00 | 0.00 | 61 | 850.8 |